[{"header": {"dx": 0.06612293990616946, "dy": 0.0552356325346848, "nx": 98, "ny": 59, "la1": 35.046912555036876, "la2": 31.78801023549047, "lo1": -121.43107172385933, "lo2": -114.95102361305473, "refTime": "2026040916", "parameterCategory": 1, "parameterNumber": 2}, "data": [12.65, 12.65, 12.65, 12.65, 11.8, 11.8, 11.8, 10.43, 10.43, 8.18, 6.2, 8.22, 12.52, 11.18, 10.28, 10.73, 10.73, 10.73, 10.73, 10.28, 9.39, 9.39, -8.94, -8.0, -6.7, -5.06, -3.47, -4.43, -5.6, -6.26, -6.71, -5.6, -4.43, -3.0, -2.12, 0.0, 0.0, 0.0, 0.0, 5.69, 8.06, 9.54, 10.4, 10.79, 11.44, 13.16, 14.64, 15.22, 15.1, 14.39, 12.96, 11.46, 10.84, 10.18, 9.8, 9.6, 9.81, 10.2, 10.73, 10.85, 11.11, 11.33, 10.84, 10.84, 11.21, 11.21, 11.03, 11.54, 11.18, 11.79, 12.04, 11.61, 11.33, 10.84, 10.12, 9.68, 10.68, 11.62, 12.96, 12.52, 9.2, 5.06, 0.0, 0.0, 0.0, 2.6, 7.2, 8.06, 7.89, 8.22, 9.4, 9.58, 9.58, 10.8, 11.44, 12.04, 10.73, 10.28, 12.27, 12.65, 12.65, 12.65, 11.8, 11.8, 12.16, 9.12, 8.85, 8.18, 6.0, 9.17, 8.22, 9.6, 11.62, 11.18, 10.28, 11.62, 10.28, 8.8, 10.28, 10.28, 9.39, -8.94, -6.36, -5.58, -5.58, -4.74, -6.0, -6.71, -6.0, -4.43, -2.6, 0.0, 0.0, 2.26, 2.54, 2.54, 2.69, 6.32, 8.18, 9.3, 9.96, 9.62, 11.7, 13.07, 14.8, 14.66, 14.57, 13.41, 10.79, 10.75, 10.46, 9.38, 9.2, 9.58, 9.81, 10.4, 10.85, 10.85, 11.11, 11.11, 10.68, 11.28, 11.28, 11.03, 11.03, 11.54, 11.61, 12.09, 12.53, 12.09, 11.36, 10.89, 10.58, 9.7, 11.13, 11.62, 12.96, 12.52, 9.2, 5.06, 0.0, 0.0, 0.0, 2.6, 7.2, 8.06, 7.89, 8.22, 9.4, 9.58, 9.58, 10.8, 11.44, 12.04, 10.73, 10.28, 12.27, 12.65, 12.65, 12.65, 10.43, 10.43, 10.75, 9.12, 9.12, 6.4, 6.94, 4.6, 10.4, 10.4, 9.6, 10.18, 10.6, 10.6, 10.6, 10.0, 9.33, 10.73, 0.0, -10.28, -8.94, -7.15, -6.36, -6.36, -6.0, -7.15, -6.8, -3.2, 0.0, 0.0, 4.74, 6.01, 5.69, 5.36, 4.83, 6.42, 8.22, 9.8, 10.87, 12.13, 13.38, 15.27, 16.54, 17.02, 13.41, 10.62, 9.89, 9.63, 9.6, 9.38, 8.79, 9.58, 9.81, 10.73, 10.85, 11.11, 11.18, 11.18, 10.68, 11.03, 10.73, 10.73, 11.27, 11.27, 11.37, 11.87, 12.53, 12.71, 12.41, 11.15, 10.7, 10.28, 10.28, 13.41, 13.72, 13.01, 9.2, 3.6, 0.0, 0.0, -1.84, 0.0, 3.6, 7.07, 8.0, 8.6, 10.99, 10.94, 10.25, 10.04, 11.09, 10.73, 9.39, 9.39, 12.27, 12.27, 12.65, 11.52, 10.43, 10.43, 10.75, 9.12, 7.59, 5.15, 5.4, 5.95, 8.53, 7.9, 7.9, 9.3, 9.67, 10.8, 10.8, 10.84, 10.6, 9.2, 7.9, -8.22, -9.6, -9.83, -7.15, -7.15, -6.4, -7.6, -8.49, -4.0, 0.0, 4.0, 6.32, 7.81, 6.95, 7.9, 6.16, 7.44, 10.77, 13.28, 14.17, 14.08, 14.51, 15.27, 14.99, 11.18, 10.23, 9.79, 9.21, 9.33, 9.4, 8.99, 9.2, 9.2, 10.17, 10.73, 11.11, 11.11, 11.11, 11.11, 10.85, 10.85, 10.4, 10.4, 10.55, 10.79, 11.06, 11.88, 13.23, 14.31, 14.62, 12.52, 10.28, 9.8, 9.83, 13.41, 15.65, 11.99, 6.01, 2.8, 0.0, -1.98, -1.95, 0.0, 2.83, 6.01, 6.79, 10.56, 11.9, 10.48, 10.04, 10.27, 9.39, 9.83, 9.39, 8.94, 12.27, 12.27, 12.65, 11.52, 10.43, 10.43, 10.75, 7.82, 7.59, 5.15, 4.48, 4.8, 5.2, 7.9, 7.59, 8.22, 8.22, 9.66, 9.66, 8.53, 8.85, 4.8, 0.0, 0.0, -4.8, -7.9, -6.95, -9.39, -9.39, -8.49, 8.94, 0.0, 0.0, 4.32, 7.9, 7.9, 7.9, 9.17, 8.97, 10.78, 12.17, 12.96, 13.03, 12.6, 12.75, 12.03, 11.62, 11.18, 10.73, 10.25, 10.12, 9.85, 9.55, 9.2, 9.6, 10.17, 10.6, 11.03, 11.03, 11.11, 11.11, 10.85, 10.15, 10.0, 10.04, 10.23, 10.55, 10.23, 10.66, 11.83, 13.52, 15.01, 15.67, 15.16, 12.52, 8.82, 9.34, 11.62, 14.3, 12.39, 3.72, 1.7, 0.0, 0.0, -1.49, 0.0, 5.59, 6.79, 9.08, 11.07, 10.85, 10.04, 9.6, 8.94, 9.21, 9.39, 8.94, 8.87, 12.27, 12.27, 11.17, 11.52, 11.52, 10.43, 10.75, 9.22, 7.59, 7.13, 4.48, 4.6, 5.0, 7.59, 7.9, 7.9, 6.97, 8.53, 8.53, 7.82, 6.44, 2.93, 0.0, 0.0, 0.0, 0.0, 0.0, 0.0, 0.0, 0.0, 9.39, 6.64, 5.46, 8.53, 10.3, 10.3, 9.96, 11.28, 12.33, 8.4, 8.93, 10.12, 11.2, 11.99, 12.14, 12.2, 11.8, 11.51, 11.59, 11.18, 11.13, 10.56, 10.35, 10.28, 10.78, 11.21, 11.28, 11.21, 11.03, 11.11, 11.03, 10.32, 10.0, 9.65, 10.04, 10.23, 10.55, 9.27, 10.04, 11.6, 12.98, 13.49, 14.93, 16.26, 15.65, 13.86, 8.89, 8.05, 8.49, 10.04, 2.6, 2.66, 2.66, 0.0, 0.0, 2.06, 5.21, 8.85, 10.63, 10.36, 10.61, 11.87, 9.39, 8.06, 9.39, 9.39, 8.67, 9.97, 12.27, 12.27, 11.17, 11.52, 11.52, 10.43, 9.22, 9.22, 6.4, 6.2, 3.82, 1.93, 4.8, 7.59, 8.53, 7.9, 8.53, 7.82, 8.01, 8.85, 9.96, 12.27, 12.27, 4.95, 0.0, 0.0, 0.0, 0.0, -5.8, -4.8, 0.0, 0.0, 8.8, 8.43, 10.09, 12.39, 12.42, 12.87, 11.53, 4.24, 5.31, 6.67, 8.38, 11.16, 13.81, 12.18, 12.14, 11.46, 11.57, 12.07, 11.62, 10.68, 10.96, 11.0, 11.44, 11.44, 11.46, 11.44, 11.28, 11.71, 11.03, 10.17, 10.32, 9.9, 9.6, 10.15, 10.15, 9.9, 9.9, 11.37, 12.53, 13.01, 13.09, 14.97, 16.39, 15.59, 13.79, 8.44, 8.49, 9.68, 4.75, 4.71, 4.2, 2.39, 3.39, 4.47, 7.36, 10.3, 11.29, 10.79, 12.52, 11.45, 7.2, 7.6, 8.94, 8.6, 9.33, 10.05, 12.39, 11.9, 11.9, 11.17, 11.52, 11.52, 9.22, 9.22, 6.4, 5.28, 3.07, 1.62, 2.49, 6.2, 10.41, 7.9, 8.53, 9.96, 9.96, 11.16, 12.89, 13.41, 13.41, 15.43, 13.59, 13.59, 11.06, 0.0, -6.6, -6.0, 0.0, 0.0, 3.96, 8.85, 9.09, 11.2, 11.92, 10.6, 11.62, 11.62, 0.0, 6.2, 10.05, 13.26, 14.94, 14.03, 11.62, 11.18, 11.62, 12.07, 10.73, 11.18, 11.57, 11.57, 11.57, 11.57, 11.58, 11.58, 11.58, 11.46, 11.28, 10.35, 10.41, 10.41, 10.18, 10.18, 10.68, 9.97, 10.14, 10.6, 11.84, 12.86, 13.39, 14.28, 15.07, 15.07, 12.81, 11.91, 12.52, 14.27, 14.95, 7.73, 4.88, 5.69, 5.4, 6.96, 7.93, 10.02, 11.6, 12.07, -0.0, -0.0, -0.0, 8.49, 8.33, 7.95, 9.21, 9.04, 12.39, 11.9, 11.9, 11.9, 11.52, 10.43, 10.43, 9.22, 7.93, 5.11, 4.08, 2.52, 2.54, 3.56, 5.6, 5.6, 7.19, 9.48, 10.3, 10.47, 11.99, 13.41, 13.86, 14.16, 12.3, 11.18, 9.83, 0.0, -7.0, 0.0, 4.38, 3.69, 8.43, 11.53, 11.2, 10.4, 10.0, 11.18, 4.6, -4.6, -0.0, 14.75, 13.99, 12.14, 11.62, 10.84, 11.71, 10.96, 10.18, 10.65, 11.62, 10.73, 11.62, 11.62, 11.62, 11.62, 11.62, 11.18, 11.58, 11.58, 11.14, 10.69, 10.25, 10.12, 9.92, 9.97, 11.06, 10.6, 10.69, 10.7, 11.6, 12.94, 13.86, 14.75, 14.28, 13.38, 11.59, 11.62, 13.86, 16.09, 16.51, 11.44, 6.3, 5.82, 6.77, 8.22, 9.02, 9.67, 10.05, 9.83, 2.6, 2.6, 4.74, 8.05, 8.06, 8.06, 8.8, 8.4, 12.39, 11.53, 11.9, 11.9, 12.27, 10.43, 10.43, 10.43, 9.16, 5.8, 5.08, 5.8, 5.4, 4.58, 3.01, 4.24, 5.81, 5.48, 5.81, 5.28, 5.8, 6.67, 8.66, 10.12, 10.12, 9.67, 8.49, 0.0, 6.6, 10.12, 10.43, 16.54, 15.65, 12.39, 12.07, 11.18, 9.39, 5.21, -0.0, -0.0, -0.0, 4.1, 10.6, 9.11, 8.24, 8.06, 8.06, 10.08, 10.6, 9.46, 9.54, 10.2, 10.73, 11.18, 11.62, 11.62, 11.62, 11.62, 11.62, 11.62, 11.18, 10.28, 10.28, 8.45, 9.24, 10.14, 11.15, 11.15, 11.62, 11.62, 12.07, 12.94, 14.29, 14.75, 14.3, 12.94, 11.52, 11.36, 11.99, 14.73, 17.41, 16.26, 9.48, 5.37, 6.55, 7.96, 8.99, 9.4, 10.04, 8.94, 5.26, 5.09, 6.71, 7.37, 7.95, 8.58, 9.63, 8.0, 12.39, 11.53, 11.9, 12.27, 12.27, 11.33, 10.43, 9.44, 9.16, 7.11, 6.3, 7.13, 8.66, 8.66, 8.31, 6.95, 6.35, 6.02, 6.02, 6.1, 5.51, 5.96, 6.31, 5.18, 5.48, 9.17, 9.2, 10.28, 12.96, 13.86, 9.17, -0.0, -0.0, -0.0, 6.2, 11.45, 8.22, -0.0, -0.0, -0.0, -0.0, 3.11, 4.6, 9.83, 9.39, 8.49, 8.49, 8.24, 8.33, 8.48, 9.11, 9.16, 9.79, 10.28, 10.73, 11.18, 11.58, 11.88, 11.88, 11.44, 11.18, 9.83, 7.98, 9.11, 9.6, 10.56, 11.05, 12.03, 12.07, 11.93, 12.27, 12.66, 14.0, 14.11, 13.67, 13.53, 12.37, 11.09, 11.5, 12.8, 14.9, 16.0, 14.42, 8.3, 6.32, 6.21, 7.6, 8.06, 9.33, 8.24, 5.75, 7.15, 6.71, 6.36, 7.2, 9.55, 9.21, 8.24, 12.39, 11.53, 11.9, 12.27, 12.27, 11.33, 11.33, 10.43, 10.12, 8.73, 7.44, 8.51, 9.87, 11.07, 11.58, 10.99, 10.61, 11.8, 12.7, 13.26, 12.92, 12.7, 13.27, 12.87, 12.72, 12.96, 12.52, 7.06, 7.37, 6.0, 3.8, -0.0, -1.63, -1.52, -0.0, -0.0, -0.0, -0.0, -0.0, 1.95, 1.84, -0.0, -0.0, 9.39, 8.94, 8.05, 8.49, 8.49, 8.49, 8.94, 8.49, 8.89, 8.9, 8.9, 9.39, 9.39, 10.28, 12.02, 11.72, 10.14, 8.77, 7.28, 7.33, 8.43, 8.93, 9.96, 11.03, 11.76, 11.18, 10.84, 10.95, 11.3, 12.14, 12.04, 12.04, 12.56, 11.75, 11.02, 10.73, 11.69, 12.87, 13.15, 12.39, 9.44, 6.7, 7.21, 7.28, 8.4, 8.37, 8.48, 7.37, 7.52, 7.15, 6.36, 7.76, 9.2, 9.21, 7.37, 12.39, 12.39, 11.9, 12.81, 12.81, 12.0, 11.33, 10.12, 10.12, 9.8, 9.13, 9.5, 9.87, 11.25, 13.33, 14.11, 13.99, 13.07, 12.58, 13.11, 13.18, 13.32, 13.41, 13.41, 11.98, 10.65, 10.21, 9.32, 8.85, 7.15, 6.71, 5.21, -0.0, -1.84, -1.98, -2.8, -3.0, -0.0, -0.0, -0.0, -0.0, -0.0, -0.0, -0.0, 8.49, 5.69, 5.69, 7.07, 8.24, 8.33, 7.52, 7.98, 8.49, 7.6, 8.94, 9.29, 9.29, 10.18, 11.03, -5.37, -0.0, 1.62, 4.2, 4.83, 6.95, 8.58, 9.4, 10.43, 10.32, 11.4, 11.18, 10.52, 8.95, 9.65, 10.28, 11.02, 11.41, 10.43, 10.66, 10.48, 9.45, 10.85, 11.95, 12.18, 8.85, 8.85, 7.59, 7.56, 8.18, 7.95, 7.95, 6.88, 7.5, 6.45, 7.76, 9.13, 7.81, 7.06, 12.39, 12.74, 12.03, 12.42, 12.81, 11.64, 11.64, 11.64, 10.86, 10.12, 10.12, 9.5, 10.43, 11.25, 13.23, 14.2, 15.07, 14.69, 14.47, 14.06, 14.21, 14.23, 14.73, 15.65, 15.65, 15.63, 14.23, 14.23, 13.33, 12.49, 11.18, 9.83, 7.6, -0.0, -0.0, -0.0, -0.0, -0.0, -0.0, -0.0, -0.0, -0.0, -0.0, -0.0, 9.83, 9.83, 6.7, 8.18, 9.6, 10.41, 9.64, 9.96, 13.15, 13.86, 12.14, 9.97, 8.72, 9.29, 10.73, -5.37, -3.45, -0.0, 2.02, 1.93, 4.2, 6.3, 7.4, 8.03, 8.58, 7.76, 8.93, 11.45, 11.18, 9.04, 8.18, 10.0, 9.6, 9.45, 8.8, 8.8, 8.6, 9.03, 11.34, 12.96, 10.12, 10.09, 9.17, 5.52, 5.36, 6.8, 8.79, 6.6, 6.57, 6.57, 8.48, 8.91, 7.42, 6.65, 12.74, 12.74, 12.03, 12.42, 12.42, 12.42, 11.64, 11.64, 10.86, 11.44, 10.77, 11.03, 10.43, 11.76, 12.87, 14.36, 15.15, 15.49, 15.44, 15.23, 14.99, 15.12, 15.57, 16.07, 16.09, 16.54, 16.07, 15.58, 15.13, 14.73, 13.86, 12.48, 11.18, 7.6, 5.06, -0.0, 3.6, 5.37, 3.8, -0.0, -0.0, -0.0, -0.0, -0.0, -0.0, -0.0, 6.32, 8.49, 8.94, 9.83, 10.28, 10.28, 8.8, -0.0, -0.0, 3.4, 7.6, 8.49, 8.49, -0.0, -3.52, -2.28, -0.0, -0.0, 2.28, 5.46, 6.95, 8.43, 7.68, 7.81, 8.06, 10.0, 10.4, -9.6, -9.75, -6.95, -0.0, 10.28, 9.2, 9.2, 8.43, 8.34, 8.24, 9.9, 9.75, 10.73, 10.3, 5.0, 4.2, 6.79, 8.18, 6.91, 5.82, 6.8, 7.21, 7.63, 7.12, 7.12, 12.74, 12.74, 12.03, 12.42, 12.42, 12.42, 11.64, 12.13, 11.44, 11.44, 11.1, 11.64, 11.52, 11.76, 12.52, 13.71, 14.59, 15.56, 16.02, 15.94, 15.71, 15.9, 16.01, 16.52, 16.54, 16.52, 16.52, 16.03, 15.59, 15.18, 15.2, 15.18, 13.72, 11.62, 7.15, 5.06, 5.37, 6.32, 3.6, -0.0, -0.0, -0.0, -0.0, -3.6, -3.6, -3.6, -0.0, -0.0, -0.0, 3.6, 6.01, 5.37, 2.54, -0.0, -0.0, 3.2, 7.6, 8.49, 8.0, -0.0, -4.0, -4.2, -3.8, -0.0, -0.0, 3.6, 6.32, 7.81, 6.95, 8.4, 8.14, 9.77, -0.0, -10.4, -9.3, -3.53, -0.0, 5.4, 11.62, 4.8, 5.7, 6.95, 7.44, 7.95, 7.53, 7.74, 9.63, 8.43, 5.1, 5.69, 7.81, 4.16, 5.37, 7.03, 8.14, 7.6, 7.2, 7.2, 12.74, 12.74, 12.42, 12.03, 12.39, 12.79, 12.13, 12.51, 12.13, 11.44, 11.8, 11.64, 11.87, 12.29, 13.02, 13.33, 13.58, 15.15, 16.02, 16.37, 16.19, 15.91, 16.01, 16.09, 16.07, 16.08, 16.08, 16.09, 16.09, 16.54, 16.99, 16.9, 15.61, 13.57, 7.01, 6.36, 5.06, 3.2, -0.0, -0.0, -0.0, -0.0, -0.0, -3.6, -4.2, -4.0, -4.0, -3.8, -3.8, -3.8, -0.0, -0.0, -0.0, -0.0, 6.32, 6.32, 6.32, 4.2, -0.0, -4.6, -7.27, -6.64, -3.8, -0.0, -0.0, 2.12, 5.37, 5.69, 8.67, 8.85, 9.76, 10.0, -12.96, -11.28, -5.2, 2.37, 6.94, 8.3, 11.2, 11.62, 7.59, 4.4, 4.6, 5.03, 6.79, 5.69, 8.17, 7.6, 7.07, 6.91, 6.64, 3.99, 3.4, 6.01, 8.42, 7.33, 7.32, 7.32, 12.74, 12.74, 13.15, 12.79, 12.39, 12.39, 12.79, 12.13, 12.51, 11.8, 12.27, 12.65, 12.45, 11.87, 12.29, 13.13, 13.58, 14.58, 15.49, 16.1, 15.9, 15.91, 15.47, 15.2, 15.63, 16.08, 16.54, 16.53, 16.53, 17.37, 17.3, 17.57, 16.86, 14.39, 11.5, 8.05, 6.71, 4.43, -0.0, -0.0, -0.0, -0.0, -0.0, -6.01, -6.32, -6.64, -6.32, -4.0, -4.0, -4.2, -0.0, -0.0, -0.0, -0.0, -0.0, -0.0, -0.0, -0.0, -0.0, -6.95, -6.95, -6.64, -6.32, -0.0, -0.0, -0.0, 2.8, 7.6, 7.87, 10.46, 11.71, 11.62, -0.0, 3.96, 7.51, 7.82, 8.44, 9.76, 10.37, 11.09, 11.06, 10.28, 6.32, 1.84, 0.0, 1.67, 4.96, 7.07, 6.91, 8.23, 7.56, 3.35, 3.09, 5.13, 7.27, 6.95, 6.64, 6.64, 12.74, 12.74, 12.98, 12.79, 12.39, 12.39, 12.79, 12.13, 12.9, 12.9, 12.27, 12.65, 13.42, 12.82, 12.29, 14.13, 12.56, 13.78, 14.73, 14.94, 15.45, 15.66, 14.92, 16.12, 15.02, 16.27, 13.53, 16.48, 16.73, 15.41, 16.76, 17.13, 16.53, 15.06, 13.27, 11.87, 9.83, 8.91, -0.0, -0.0, -2.26, -2.4, -3.6, -5.69, -6.01, -6.32, -6.32, -6.64, -4.2, -4.2, -0.0, -0.0, -0.0, -0.0, -0.0, -0.0, -0.0, -0.0, -0.0, -9.83, -9.83, -9.39, -6.32, -2.4, -1.95, -0.0, -0.0, 7.15, 8.37, 10.91, 12.07, 11.87, 12.7, 13.28, 12.52, 12.58, 12.31, 12.31, 12.08, 11.64, 9.68, 9.83, 4.4, -2.39, 0.0, 1.84, 4.6, 7.27, 8.07, 8.07, 6.95, 5.46, 3.63, 4.28, 5.64, 6.53, 6.42, 6.42, 12.74, 12.74, 12.98, 12.39, 12.39, 12.39, 12.79, 12.5, 12.9, 12.9, 12.9, 12.65, 13.42, 12.82, 13.2, 12.65, 12.27, 12.45, 13.68, 13.84, 16.0, 14.83, 13.87, 14.51, 13.76, 14.09, 14.56, 14.39, 15.52, 15.94, 16.36, 16.54, 16.02, 14.95, 13.82, 12.65, 12.3, 11.62, 9.97, 5.69, -0.0, -6.01, -5.69, -4.74, -3.79, -8.05, -6.01, -6.32, -6.64, -4.2, -4.2, -4.0, -0.0, -0.0, -0.0, -0.0, 9.83, 8.49, 8.94, 9.83, -9.39, -6.32, -3.8, -4.71, -3.4, -1.4, -0.0, 5.95, 7.98, 9.54, 12.04, 14.83, 17.13, 18.31, 16.01, 14.73, 13.01, 11.68, 12.03, 11.18, 10.28, 9.77, 8.94, -8.4, -6.32, 0.0, 0.0, 4.71, 7.9, 6.64, 6.95, 7.65, 5.98, 3.36, 3.88, 5.9, 5.9, 5.9, 12.74, 12.98, 12.98, 12.39, 12.39, 12.39, 12.66, 13.07, 12.9, 13.29, 12.9, 13.59, 13.42, 13.42, 13.2, 13.02, 12.27, 11.93, 10.03, 11.87, 14.47, 14.03, 13.76, 12.98, 13.59, 14.26, 14.56, 15.71, 16.44, 17.15, 17.15, 16.91, 16.54, 14.19, 12.01, 12.92, 12.65, 12.3, 11.46, 10.28, 8.49, 9.39, -9.83, -8.94, -7.15, -5.69, -6.01, -8.0, -6.32, -4.0, -3.8, -3.8, -3.6, -0.0, -0.0, -0.0, 8.49, 0.0, 9.83, 8.94, 8.94, -8.49, -6.01, -6.01, -4.22, -1.73, -0.0, 4.22, 6.18, 7.81, 9.67, 12.79, 15.61, 16.91, 15.91, 14.68, 11.17, 10.92, 10.01, 10.32, 10.14, 9.83, 9.39, -8.49, -8.94, -8.49, -6.32, 0.0, 6.01, 6.01, 6.32, 8.32, 6.94, 3.36, 2.97, 4.5, 4.5, 4.5, 12.74, 12.98, 12.98, 12.98, 12.39, 12.66, 12.66, 13.07, 13.48, 13.29, 13.59, 13.59, 13.03, 13.42, 13.74, 13.51, 12.65, 12.13, 11.69, 13.34, 14.64, 14.99, 14.17, 13.54, 14.4, 15.99, 16.36, 16.0, 16.34, 16.88, 17.33, 17.31, 17.23, 16.32, 12.01, 12.01, 12.22, 11.53, 11.5, 10.27, 9.55, 8.0, 8.94, -8.49, 7.15, -0.0, -6.01, -7.6, -7.6, -3.6, -3.4, -3.6, -3.6, -0.0, -0.0, 3.6, 8.05, 0.0, 0.0, 0.0, 0.0, 8.49, -6.01, -4.71, -2.54, -0.0, -0.0, 2.4, 4.56, 4.83, 5.7, 9.76, 14.16, 15.93, 6.32, 9.36, 10.83, 9.66, 9.22, 8.85, 9.43, 9.42, 9.21, 0.0, -8.91, -8.0, -4.0, 0.0, 6.32, 6.64, 7.9, 8.22, 7.72, 3.63, 2.44, 2.99, 4.34, 4.34, 12.74, 12.74, 12.98, 12.98, 12.39, 12.66, 13.07, 13.07, 13.48, 13.29, 13.59, 13.59, 13.99, 13.74, 13.74, 13.51, 12.65, 12.56, 12.37, 14.03, 15.37, 15.18, 14.51, 14.11, 14.99, 16.12, 17.05, 16.91, 16.69, 15.93, 16.47, 16.46, 16.43, 16.05, 14.36, 12.92, 12.57, 12.27, 11.6, 10.4, 9.6, 9.2, 8.18, 6.32, 8.05, -0.0, -5.69, -7.2, -5.37, -5.06, -3.4, -3.4, -3.4, -0.0, -0.0, -0.0, 2.26, 8.05, 0.0, 0.0, 0.0, 8.49, -2.69, -2.69, -1.95, -0.0, -0.0, 2.12, 4.46, 2.17, -0.0, 8.23, 13.57, -8.94, -4.11, 2.39, 6.78, 7.89, 7.93, 8.18, 8.42, 8.55, 8.6, 8.91, 0.0, -4.2, 0.0, 4.2, 7.27, 8.22, 8.32, 7.42, 7.27, 4.46, 3.35, 3.09, 3.6, 3.6, 12.74, 12.74, 12.98, 12.98, 12.66, 12.66, 12.66, 13.07, 13.48, 14.11, 13.59, 13.99, 13.99, 13.74, 13.74, 13.99, 13.51, 12.56, 13.16, 13.8, 14.97, 15.83, 15.27, 14.21, 14.33, 15.6, 16.54, 16.86, 16.96, 16.69, 15.95, 15.95, 15.91, 15.61, 15.12, 14.39, 14.79, 13.2, 11.99, 10.62, 9.4, 8.99, 9.45, 9.55, 8.94, 5.37, -6.01, -7.6, -5.37, -4.22, -4.46, -2.4, -2.4, -2.4, -0.0, -0.0, -0.0, 2.26, 8.49, 0.0, 0.0, -7.15, -3.2, -1.73, -1.32, -0.0, 1.58, 4.0, 8.48, 7.6, 8.05, 10.91, 14.3, 12.07, -11.03, -5.7, 0.0, 3.04, 5.31, 6.73, 7.38, 7.9, 7.96, 7.89, 0.0, -6.32, -9.39, 9.39, -0.0, -9.39, 3.49, 2.69, 4.37, 5.37, 4.75, 3.4, 3.91, 3.91, 12.74, 12.74, 12.98, 12.98, 12.98, 13.15, 12.66, 13.07, 13.48, 14.11, 13.59, 13.59, 14.24, 13.74, 13.74, 13.99, 13.51, 13.38, 13.2, 13.8, 14.39, 15.37, 15.83, 15.52, 14.92, 14.84, 16.12, 16.86, 16.91, 16.53, 16.69, 16.27, 15.49, 15.31, 15.27, 14.65, 14.94, 14.3, 13.07, 11.21, 9.13, 8.72, 8.99, 9.2, 9.04, 9.11, 8.05, -6.26, -5.6, -4.81, -3.72, -3.4, -3.97, -2.26, -2.4, -0.0, -0.0, -0.0, -0.0, 8.05, 0.0, -6.71, -4.74, -2.32, -0.96, -0.0, 1.75, 4.2, 6.32, 7.63, 7.6, 9.49, 13.41, 13.41, 13.86, 14.3, 0.0, 0.0, 1.26, 4.99, 6.36, 7.93, 8.35, 8.93, 8.49, -8.05, -8.06, -4.96, -4.96, -8.48, -8.48, -4.71, 0.0, 4.22, 5.06, 3.97, 3.55, 3.55, 12.74, 12.74, 12.98, 12.98, 12.98, 13.15, 12.66, 13.07, 13.7, 13.7, 13.59, 13.59, 14.24, 14.24, 13.74, 13.99, 13.99, 13.78, 13.99, 13.81, 13.99, 14.56, 15.52, 15.94, 15.52, 15.35, 15.35, 16.43, 16.86, 16.91, 16.66, 16.69, 16.27, 16.22, 15.36, 15.02, 14.86, 15.27, 14.7, 12.6, 10.5, 9.24, 9.24, 9.13, 9.4, 9.45, 9.13, 5.69, -6.71, -5.01, -4.11, -3.49, -3.68, -2.66, -1.84, -1.84, -1.73, -0.0, -0.0, 3.6, 7.6, 8.94, -2.4, -2.66, -0.0, -0.0, 1.84, 4.2, 7.6, 8.05, 7.63, 9.46, 11.15, 14.28, 14.57, 15.23, 15.65, 8.59, 1.0, 1.75, 5.36, 7.68, 8.91, 9.1, 7.45, -0.0, -6.01, -6.01, -4.0, -8.49, -8.94, -4.71, 0.0, 2.82, 3.68, 4.47, 3.2, 3.2, 12.74, 12.74, 12.98, 12.98, 12.98, 13.15, 13.15, 12.66, 13.28, 13.7, 13.59, 13.59, 14.24, 13.84, 13.99, 13.99, 13.99, 14.21, 13.78, 13.99, 13.81, 13.99, 14.71, 15.11, 15.42, 15.52, 15.1, 15.77, 16.43, 16.48, 16.66, 16.66, 16.69, 16.69, 16.19, 15.49, 15.2, 15.2, 15.2, 14.73, 13.05, 11.54, 10.25, 9.24, 9.92, 9.85, 9.75, 8.63, 7.2, 6.71, -3.22, -3.12, -4.12, -3.97, -3.33, -2.66, -1.84, -0.0, -0.0, 3.0, 6.01, 3.6, -0.0, -0.0, -0.0, 1.75, 4.2, 6.32, 8.06, 8.49, 8.06, 8.48, 9.7, 11.62, 12.86, 13.92, 16.44, 14.24, 1.94, 0.0, 2.1, 6.4, 8.78, 8.15, 7.63, 5.06, -0.0, -3.8, -0.0, -0.0, -0.0, -0.0, 0.0, 1.4, 3.4, 3.4, 3.2, 3.2, 12.74, 12.74, 12.98, 12.98, 12.98, 13.15, 13.15, 12.66, 13.28, 13.28, 13.19, 13.84, 13.84, 13.84, 14.03, 13.59, 14.21, 14.21, 14.21, 13.99, 14.18, 13.99, 14.16, 14.3, 15.0, 15.0, 15.0, 15.0, 15.69, 16.0, 16.05, 16.22, 16.69, 16.69, 16.66, 15.87, 15.36, 15.19, 15.19, 14.94, 13.56, 12.21, 10.75, 9.58, 10.16, 9.72, 10.05, 9.24, 8.17, 7.4, 6.26, -1.7, -3.12, -4.39, -3.97, -2.8, -1.73, -0.0, -0.0, -0.0, -0.0, -0.0, -0.0, -0.0, -0.0, 2.49, 7.44, 8.94, 8.94, 8.94, 8.94, 9.16, 9.06, 9.06, 10.14, 12.42, 14.73, 13.57, -1.26, -1.07, 1.05, 4.58, 8.16, 8.22, 8.91, -0.0, -0.0, -0.0, -0.0, -0.0, -0.0, -0.0, 0.0, 0.0, 1.0, 2.83, 2.99, 2.99, 12.98, 12.98, 12.98, 12.98, 12.98, 13.15, 13.15, 13.07, 13.28, 13.28, 13.19, 13.84, 14.24, 14.24, 14.44, 13.59, 13.8, 13.8, 13.8, 13.97, 13.99, 14.18, 14.33, 14.47, 14.58, 14.47, 14.47, 14.88, 15.69, 15.69, 16.0, 16.05, 16.25, 16.25, 16.25, 16.0, 15.49, 15.19, 15.19, 14.99, 14.53, 12.33, 10.95, 9.13, 8.77, 9.28, 10.49, 11.03, 10.68, 8.55, 7.95, 5.81, -0.0, -3.12, -4.42, -4.02, -3.45, -2.66, -1.03, -2.49, -4.29, -5.69, -1.84, -0.0, 1.84, 4.2, 6.64, 8.94, 7.07, 8.67, 8.94, 9.34, 9.7, 9.9, 10.28, 11.88, 12.7, 10.8, -4.2, -5.36, 0.0, 3.47, 6.6, 8.05, 9.39, -1.84, -1.52, -2.4, -3.6, -1.84, -1.58, -0.0, -0.0, -1.49, 0.0, 1.75, 2.54, 2.54, 12.98, 12.98, 12.98, 12.98, 12.98, 13.15, 13.15, 13.07, 13.28, 13.28, 13.28, 13.84, 13.84, 14.24, 14.86, 13.99, 13.59, 13.8, 13.8, 13.97, 14.38, 14.18, 14.53, 14.65, 14.75, 14.47, 14.05, 14.47, 15.18, 15.18, 15.27, 15.56, 15.61, 15.66, 16.25, 16.05, 15.6, 14.99, 15.19, 15.39, 14.58, 12.96, 11.5, 8.93, 7.56, 8.33, 11.64, 12.18, 11.58, 10.56, 9.58, 7.82, 4.92, -1.55, -3.43, -4.74, -4.71, -4.29, -3.72, -3.72, -5.24, -6.08, -4.22, -0.0, 1.4, 2.33, 3.8, 9.33, 6.8, 5.37, 7.2, 8.01, 10.73, 11.96, 12.15, 12.89, 13.25, 11.14, 7.9, -5.7, -2.39, 2.82, 5.8, 5.63, 0.0, -4.71, -6.01, -7.2, -6.0, -5.06, -1.49, -0.0, -0.0, 0.0, 0.0, 0.94, 2.44, 2.44, 12.56, 12.56, 12.98, 12.98, 12.98, 13.15, 12.66, 13.07, 13.28, 13.7, 13.7, 13.28, 13.84, 13.84, 14.24, 14.44, 13.99, 14.21, 14.21, 14.38, 14.38, 14.53, 14.53, 14.65, 14.65, 14.75, 14.23, 13.81, 14.51, 14.75, 15.27, 14.92, 14.99, 15.04, 15.66, 15.66, 15.94, 15.36, 14.79, 15.19, 14.99, 13.77, 11.6, 9.45, 7.72, 8.43, 11.8, 12.56, 12.13, 9.48, 8.82, 7.96, 5.69, 4.92, -1.55, -3.43, -5.38, -5.72, -5.72, -5.49, -5.75, -6.8, -6.01, -0.0, 1.67, 1.32, 1.49, 6.01, 8.05, 5.72, 5.37, 7.15, 8.9, 12.49, 14.73, 14.58, 13.43, 11.75, 10.17, 9.08, 0.0, 0.0, 3.53, 4.24, 0.0, -10.4, -10.35, -9.55, -7.89, -5.36, -3.4, -1.49, -0.0, -0.0, 0.0, 0.99, 1.75, 1.75, 12.56, 12.56, 12.56, 12.98, 12.98, 13.15, 12.66, 13.07, 13.28, 13.7, 13.7, 13.7, 13.43, 14.24, 14.24, 14.44, 13.99, 14.61, 14.61, 14.61, 14.79, 14.79, 14.53, 14.53, 14.65, 14.65, 14.23, 13.28, 15.27, 13.81, 14.58, 15.0, 15.1, 14.99, 14.99, 15.66, 15.56, 15.49, 15.2, 15.2, 15.2, 14.18, 12.39, 10.0, 8.93, 9.86, 11.88, 14.18, 13.15, 11.2, 8.82, 6.7, 5.43, 4.84, 4.57, -1.41, -3.79, -5.43, -6.08, -5.82, -5.37, -6.32, -0.0, -0.0, -0.0, -0.0, -0.0, 3.6, 8.05, 8.49, 7.6, 7.6, 10.28, 11.18, 16.54, 16.8, 12.62, 9.4, 9.65, 10.8, 9.08, 0.0, 0.0, 2.28, 0.0, -13.41, -12.39, -12.39, -11.18, -7.44, -4.83, -3.15, -1.49, -0.0, 0.0, 0.0, 0.94, 0.94, 12.56, 12.56, 12.56, 12.98, 12.98, 12.98, 12.66, 13.07, 13.28, 13.7, 13.7, 13.7, 13.43, 13.43, 14.24, 14.44, 14.44, 14.44, 14.21, 14.61, 14.79, 14.79, 14.94, 14.53, 14.23, 14.23, 14.23, 13.28, 12.56, 14.6, 13.52, 14.47, 14.88, 15.27, 15.35, 15.61, 15.56, 15.6, 15.36, 15.2, 15.2, 14.79, 13.15, 10.8, 9.72, 10.65, 12.22, 13.49, 13.55, 11.44, 8.67, 6.57, 5.6, 5.2, 5.09, 4.38, 4.47, -3.22, -4.89, -4.43, -4.11, -2.26, -0.0, -0.0, -0.0, -1.32, -0.0, -0.0, 6.01, 8.48, 6.32, 6.64, 8.94, 9.85, 15.57, 19.65, 12.68, 7.59, 7.27, 10.4, 11.45, 11.6, 0.0, 4.24, 4.24, 6.4, 14.75, 14.3, 12.07, 8.94, -7.07, -5.36, -3.8, -1.73, -0.0, 0.0, 0.0, 0.0, 12.56, 12.56, 12.56, 12.56, 12.98, 12.39, 12.66, 13.07, 13.07, 13.7, 13.7, 14.11, 13.43, 13.43, 13.84, 14.44, 14.44, 14.44, 14.6, 14.61, 14.79, 15.2, 14.94, 14.94, 14.23, 14.23, 14.23, 13.81, 13.52, 13.52, 13.52, 14.23, 14.65, 14.75, 15.27, 15.56, 15.56, 15.51, 15.36, 15.2, 15.2, 15.2, 13.97, 11.92, 10.79, 10.79, 11.8, 13.29, 13.49, 11.66, 9.58, 9.06, 7.95, 6.57, 5.94, 5.7, 5.81, 4.92, -0.0, -1.19, -2.26, -2.4, -0.0, -2.54, -1.4, -1.25, -1.25, -1.4, -0.0, 4.0, 5.1, 9.33, 9.64, 9.36, 14.21, 18.76, 14.73, 13.41, 12.14, 11.6, 12.66, 13.39, 12.27, 9.8, 9.8, 11.53, 13.88, 14.03, 11.84, 8.94, -0.0, -7.81, -6.32, -2.4, -0.0, 0.0, 0.0, 0.0, 12.56, 12.56, 12.56, 12.56, 12.39, 12.39, 12.66, 13.07, 13.48, 13.7, 14.11, 14.11, 13.84, 13.43, 13.43, 14.03, 14.03, 14.03, 14.19, 14.6, 14.61, 14.79, 14.79, 14.94, 14.53, 14.23, 14.23, 13.81, 13.52, 13.92, 14.23, 14.23, 14.23, 14.23, 14.75, 15.08, 15.56, 15.51, 15.49, 15.2, 15.02, 15.02, 14.31, 12.63, 11.37, 11.03, 11.95, 12.87, 12.87, 12.37, 10.18, 9.6, 8.82, 8.06, 7.74, 6.79, 6.14, 6.26, 5.2, 3.16, -0.0, -0.0, -2.4, -2.4, -2.54, -2.54, -1.73, -1.84, -0.0, -0.0, 4.46, 9.33, 10.28, 10.89, 13.44, 15.18, 15.57, 14.79, 15.05, 14.69, 12.79, 11.9, 11.37, 10.79, 12.04, 12.87, 14.55, 12.71, 10.52, 8.49, 7.6, 7.6, -8.4, -5.69, -0.0, 5.37, 1.67, 1.67, 11.99, 11.99, 11.99, 11.99, 12.39, 12.39, 13.07, 13.07, 13.48, 13.7, 14.11, 14.11, 14.28, 13.43, 13.43, 13.84, 14.03, 14.03, 14.03, 14.6, 14.21, 14.79, 14.79, 14.94, 14.53, 14.23, 14.23, 13.81, 13.81, 14.23, 14.23, 14.23, 13.81, 13.81, 13.91, 14.58, 15.08, 15.08, 15.36, 14.79, 14.61, 15.02, 14.95, 13.07, 11.8, 11.4, 11.71, 12.62, 12.87, 12.14, 10.79, 9.45, 9.18, 8.82, 8.14, 7.37, 7.08, 6.71, 5.81, 4.0, 3.48, -0.0, -0.0, -1.4, -1.84, -0.0, -0.0, -0.0, -0.0, -0.0, 4.0, 5.69, 10.58, 11.62, 12.49, 12.86, 13.86, 14.66, 16.52, 17.86, 15.58, 10.59, 8.22, 9.09, 10.27, 10.27, 10.75, 9.26, 7.06, 8.05, 7.6, 7.6, 8.49, -7.6, -5.37, -0.0, 6.01, 6.01, 11.26, 11.26, 11.99, 11.99, 12.39, 12.39, 13.07, 13.07, 13.48, 13.7, 14.11, 14.11, 14.11, 13.84, 13.43, 13.43, 14.03, 14.03, 14.03, 14.6, 14.21, 14.38, 14.79, 14.79, 14.53, 14.11, 14.23, 13.81, 13.81, 14.23, 14.23, 14.23, 13.81, 13.91, 13.91, 13.91, 14.21, 14.64, 15.01, 14.94, 14.61, 14.86, 14.66, 12.66, 10.16, 10.52, 11.28, 12.18, 12.44, 12.14, 10.94, 9.84, 9.34, 9.08, 8.4, 7.71, 7.42, 7.1, 5.81, 4.82, 4.4, 3.48, -0.0, -1.73, -1.84, -0.0, -0.0, -0.0, -0.0, -0.0, 2.54, 4.46, 9.55, 12.45, 13.86, 12.27, 12.09, 13.21, 15.9, 18.41, 16.91, 10.41, 6.5, 6.58, 8.54, 8.8, 9.21, 6.88, 7.97, 7.6, 7.6, 7.15, 6.4, 9.39, -8.94, 7.15, 7.15, 8.05, 11.26, 11.26, 11.99, 11.99, 12.39, 12.39, 13.07, 13.07, 13.48, 13.48, 14.11, 14.11, 14.11, 14.28, 13.84, 13.43, 13.43, 14.03, 14.03, 14.6, 14.21, 14.21, 14.38, 14.79, 14.53, 14.11, 13.81, 13.81, 13.81, 13.81, 14.23, 13.81, 13.81, 13.81, 13.81, 13.91, 13.72, 14.64, 14.58, 14.53, 14.21, 14.65, 13.7, 11.3, 9.72, 10.65, 11.2, 11.87, 12.4, 11.88, 11.2, 10.55, 9.6, 8.95, 8.14, 7.98, 7.28, 7.42, 6.26, 4.92, 4.85, 4.57, 6.8, -0.0, -1.73, -0.0, -0.0, -0.0, -0.0, 2.54, 2.4, 3.8, 9.11, 11.14, 15.65, 14.28, 11.61, 12.45, 14.68, 17.13, 15.71, 11.45, 8.59, 5.29, 6.64, 8.4, 8.63, 9.11, 10.41, 10.2, 8.43, 7.08, 6.58, 6.64, 9.39, 8.05, 6.71, 7.15, 11.26, 11.26, 11.6, 11.99, 12.39, 12.39, 12.79, 13.07, 13.48, 13.48, 14.11, 14.11, 14.11, 14.28, 13.84, 13.43, 13.43, 13.62, 14.03, 13.59, 14.21, 14.21, 14.38, 14.38, 14.38, 14.11, 13.7, 13.81, 13.39, 13.39, 13.81, 13.81, 13.81, 13.81, 13.39, 13.81, 13.49, 13.72, 14.58, 14.23, 14.21, 13.74, 12.9, 10.24, 9.8, 11.58, 13.0, 12.93, 12.33, 11.88, 11.41, 10.8, 9.42, 9.36, 8.14, 7.98, 7.06, 6.98, 6.21, 5.36, 4.92, 4.85, 4.8, 3.4, -0.0, -2.54, -1.84, -0.0, 1.95, 4.46, 4.46, 5.69, 9.39, 10.28, 13.19, 14.97, 13.41, 12.09, 12.15, 12.4, 12.44, 10.8, 9.55, 6.95, 5.46, 8.55, 9.96, 11.18, 11.28, 11.35, 10.04, 7.98, 7.52, 8.4, 4.0, 5.69, 4.43, 6.71, 11.26, 11.26, 11.6, 11.99, 11.99, 12.39, 12.39, 13.07, 13.07, 13.48, 13.48, 13.7, 14.11, 14.11, 13.43, 13.43, 13.43, 13.62, 13.62, 13.59, 13.8, 13.8, 13.97, 14.38, 14.38, 14.53, 13.7, 13.39, 13.39, 13.39, 13.39, 13.81, 13.81, 13.81, 13.39, 13.39, 13.39, 13.07, 13.72, 13.81, 13.56, 13.34, 11.9, 9.88, 8.64, 11.04, 13.29, 13.35, 11.9, 11.76, 11.69, 10.99, 9.77, 8.95, 8.14, 7.98, 7.06, 6.79, 6.55, 5.77, 4.92, 4.92, 6.79, 5.06, -0.0, -0.0, -0.0, -0.0, 2.4, 5.69, 6.7, 7.2, 8.94, 8.94, 10.2, 12.94, 15.87, 16.09, 11.18, 8.63, 8.24, 8.67, 9.85, 9.58, 8.22, 11.03, 11.4, 11.18, 11.28, 11.03, 10.18, 9.16, 8.29, 9.46, 8.4, 5.69, 4.74, 4.74, 10.87, 10.87, 11.26, 11.6, 11.99, 11.99, 12.39, 13.07, 13.07, 13.07, 13.48, 13.7, 13.7, 13.7, 13.43, 13.43, 13.43, 13.62, 13.62, 13.19, 13.8, 13.8, 13.8, 13.97, 13.97, 14.11, 13.7, 13.28, 13.39, 12.98, 12.98, 12.98, 13.39, 13.39, 13.39, 12.98, 12.98, 12.56, 13.07, 13.49, 13.28, 12.79, 11.35, 9.77, 9.27, 11.05, 12.9, 13.25, 12.18, 11.69, 10.99, 10.35, 8.63, 8.24, 8.14, 7.73, 7.71, 7.21, 6.98, 6.21, 5.31, 4.92, 4.85, 6.8, 3.4, -0.0, -0.0, -0.0, 3.97, 5.69, 7.07, 8.06, 9.39, 8.38, 9.26, 10.73, 13.83, 17.79, 15.61, 11.78, 9.3, 10.68, 11.61, 12.39, 12.35, 11.91, 11.06, 10.84, 10.91, 10.7, 10.7, 9.49, 9.42, 9.33, 7.28, 6.01, 6.01, 6.01, 10.87, 10.87, 11.26, 11.6, 11.99, 11.99, 12.39, 12.39, 12.66, 13.07, 13.07, 13.48, 13.7, 13.7, 13.43, 13.43, 13.43, 13.43, 13.62, 13.19, 13.59, 13.8, 13.8, 13.97, 13.97, 13.97, 13.7, 13.28, 12.87, 12.98, 12.56, 12.56, 12.56, 12.98, 13.39, 12.56, 12.56, 12.56, 12.56, 12.56, 12.87, 12.58, 11.31, 9.76, 9.56, 11.3, 12.94, 13.39, 12.52, 11.2, 10.55, 9.58, 8.05, 8.24, 8.14, 8.14, 7.47, 7.21, 7.21, 6.51, 5.77, 5.36, 4.92, 7.6, 3.4, -0.0, -0.0, 2.54, 3.97, 5.37, 5.69, 7.6, 8.94, 9.26, 9.11, 9.24, 11.62, 14.22, 15.75, 15.55, 15.39, 15.34, 15.14, 13.86, 12.96, 12.01, 10.91, 10.47, 10.28, 10.7, 10.78, 9.92, 9.66, 8.99, 8.37, 8.0, 8.0, 8.0, 10.87, 10.87, 11.26, 11.26, 11.99, 11.99, 12.39, 12.39, 13.07, 13.07, 13.07, 13.48, 13.7, 13.19, 13.19, 13.43, 13.43, 13.43, 13.62, 13.19, 13.59, 13.8, 13.8, 13.8, 13.97, 13.97, 13.56, 13.28, 12.87, 12.45, 12.56, 12.56, 12.56, 12.56, 12.56, 12.56, 12.04, 12.45, 12.56, 12.56, 12.56, 12.33, 11.2, 9.4, 8.94, 10.15, 11.99, 12.56, 12.63, 11.14, 10.0, 9.2, 8.0, 8.0, 7.98, 7.89, 7.47, 7.63, 7.21, 6.94, 6.65, 5.31, 5.36, 5.29, 5.69, 2.54, -0.0, 1.73, 3.4, 4.22, 6.32, 6.01, 8.94, 9.39, 9.83, 9.39, 10.28, 11.6, 13.65, 14.33, 16.18, 17.59, 19.51, 18.01, 13.86, 12.47, 11.21, 10.7, 9.96, 9.96, 10.88, 8.82, 9.24, 9.42, 8.99, 7.76, 7.76, 7.76, 10.87, 10.87, 11.26, 11.26, 11.6, 11.99, 11.99, 12.39, 12.79, 13.07, 13.07, 13.07, 13.7, 13.19, 13.19, 13.43, 13.43, 13.43, 13.62, 13.19, 13.19, 13.59, 13.8, 13.8, 13.97, 13.97, 13.56, 13.28, 12.87, 12.87, 12.15, 11.75, 11.75, 11.75, 11.75, 11.75, 12.04, 12.04, 12.45, 12.14, 12.14, 11.92, 11.2, 9.4, 8.94, 10.15, 11.44, 11.88, 12.04, 11.27, 10.17, 9.13, 8.56, 8.14, 7.71, 7.89, 7.89, 7.85, 7.55, 7.55, 7.15, 5.81, 5.36, 5.16, 4.54, 4.71, 2.54, 2.26, 2.4, -0.0, -0.0, -0.0, 8.0, 8.91, 9.11, 9.21, 10.2, 11.14, 11.95, 11.5, 12.65, 16.39, 19.51, 17.89, 15.97, 14.3, 12.47, 11.21, 10.21, 10.68, 9.45, 8.3, 8.72, 8.82, 8.82, 8.3, 8.3, 8.3, 10.87, 10.87, 11.26, 11.26, 11.64, 11.99, 11.99, 12.39, 12.39, 13.07, 13.07, 13.07, 13.7, 13.19, 13.19, 13.43, 13.43, 13.43, 13.43, 13.19, 13.19, 13.59, 13.8, 13.8, 13.8, 13.97, 13.56, 13.15, 12.87, 12.56, 12.15, 11.75, 11.75, 11.34, 11.34, 11.34, 11.34, 11.62, 12.04, 12.04, 12.14, 12.04, 11.41, 10.43, 9.3, 9.92, 10.73, 11.04, 11.2, 10.55, 9.9, 9.24, 8.56, 8.33, 8.01, 8.01, 8.0, 7.6, 8.05, 7.6, 7.15, 6.21, 5.16, 4.93, 3.79, 6.01, 3.4, -0.0, -0.0, 3.6, -0.0, 3.8, 6.01, 8.48, 9.11, 9.64, 10.18, 11.12, 11.28, 10.58, 11.36, 14.75, 19.45, 18.65, 17.02, 15.54, 13.41, 11.49, 10.78, 8.99, 7.82, 7.82, 8.4, 8.55, 8.95, 8.95, 8.95, 8.95, 10.87, 10.87, 11.26, 11.26, 11.26, 11.64, 12.39, 12.39, 12.39, 12.39, 13.07, 13.07, 13.07, 13.19, 13.19, 13.19, 13.43, 13.43, 13.43, 12.79, 12.79, 13.19, 13.59, 13.8, 13.8, 13.97, 13.56, 13.15, 12.87, 12.56, 12.15, 12.15, 11.75, 11.34, 11.34, 10.94, 10.94, 11.34, 11.62, 11.62, 11.62, 11.62, 11.5, 10.43, 9.3, 9.66, 10.53, 10.87, 10.8, 9.84, 9.42, 9.36, 8.72, 8.77, 8.01, 7.56, 7.6, 7.6, 7.6, 7.6, 7.54, 6.64, 5.16, 4.09, 3.48, 5.69, 3.4, 5.37, 5.69, 8.05, 6.32, 3.8, 6.32, 8.4, 8.91, 9.64, 9.7, 9.97, 9.8, 10.0, 11.03, 13.01, 16.8, 18.76, 19.08, 16.89, 13.41, 10.7, 10.18, 8.24, 8.06, 7.81, 7.81, 8.05, 8.05, 8.55, 8.55, 8.55, 10.41, 10.41, 10.79, 11.26, 11.26, 11.64, 12.39, 12.39, 12.39, 12.79, 13.07, 13.07, 12.9, 13.19, 13.19, 13.19, 13.43, 13.43, 13.43, 12.95, 13.19, 13.19, 13.59, 13.8, 13.8, 13.39, 13.56, 13.15, 12.74, 12.15, 12.15, 12.15, 11.75, 11.34, 11.34, 10.94, 10.94, 10.94, 11.21, 11.62, 11.62, 11.62, 11.5, 10.63, 9.67, 10.41, 11.04, 10.87, 10.4, 9.27, 9.03, 8.95, 9.24, 9.06, 8.46, 8.01, 7.6, 7.15, 7.15, 7.54, 7.54, 6.64, 5.09, 4.22, 3.48, 4.74, 3.0, 5.06, 7.6, 8.49, 8.94, 9.39, 4.2, 6.64, 7.81, 8.4, 8.72, 9.33, 9.63, 10.28, 10.58, 11.33, 12.3, 16.44, 18.65, 17.78, 8.94, 7.6, 7.55, 7.47, 7.07, 6.79, 6.18, 6.21, 6.4, 6.94, 6.94, 6.94, 10.41, 10.41, 10.79, 11.26, 11.26, 11.64, 12.39, 12.39, 12.39, 12.79, 13.07, 13.07, 12.9, 13.19, 13.19, 13.19, 13.43, 13.43, 13.43, 12.95, 13.19, 13.19, 13.59, 13.59, 13.39, 13.39, 13.56, 13.15, 12.39, 12.39, 12.15, 12.15, 11.75, 11.34, 11.34, 10.94, 10.94, 10.94, 11.09, 11.09, 11.21, 11.21, 11.21, 10.63, 10.43, 10.41, 10.79, 10.66, 9.9, 9.27, 8.67, 8.63, 8.8, 8.63, 8.38, 8.02, 8.01, 7.6, 7.15, 7.15, 7.15, 6.2, 5.29, 4.98, 4.4, 4.43, 2.8, 3.0, 6.4, 8.05, 7.6, 8.0, 9.39, 4.4, 6.64, 7.81, 8.4, 8.72, 9.03, 9.6, 10.24, 10.24, 10.84, 12.71, 17.64, 15.2, 3.11, -1.41, 2.0, 5.36, 5.21, 4.74, 4.8, 5.36, 5.81, 6.14, 6.14, 6.14, 10.41, 10.41, 10.41, 10.79, 11.26, 11.26, 11.64, 12.39, 12.39, 12.79, 13.07, 12.9, 12.9, 12.9, 13.19, 13.19, 13.19, 13.43, 13.43, 12.95, 12.95, 13.19, 13.19, 13.19, 13.39, 13.39, 13.39, 13.15, 12.39, 12.39, 11.99, 11.99, 11.75, 11.75, 11.34, 10.94, 10.94, 10.4, 10.68, 10.68, 11.09, 11.21, 11.21, 10.4, 10.43, 10.56, 10.79, 10.66, 10.28, 9.3, 8.67, 8.06, 8.43, 8.4, 8.24, 7.94, 7.94, 7.57, 7.56, 6.71, 6.71, 5.81, 5.36, 5.26, 5.2, 5.09, 4.74, 4.43, 4.74, 7.15, 7.6, 7.6, 6.64, 9.83, 4.4, 6.64, 8.91, 8.0, 9.26, 9.39, 9.83, 9.83, 10.28, 11.62, 18.33, 16.54, -3.39, -4.46, -1.08, 4.4, 5.51, 5.37, -0.0, -0.0, 4.11, 7.15, 7.15, 7.15, 10.41, 10.41, 11.2, 11.6, 11.26, 11.26, 11.64, 12.39, 12.39, 12.79, 13.07, 12.9, 12.9, 12.9, 13.19, 13.19, 13.19, 13.43, 13.43, 12.95, 12.95, 13.19, 13.19, 13.19, 13.19, 13.39, 12.99, 12.79, 12.39, 11.99, 11.99, 11.6, 11.6, 11.6, 11.2, 10.8, 10.8, 10.4, 10.68, 10.68, 10.68, 10.68, 10.79, 10.68, 10.23, 10.04, 9.76, 10.04, 10.04, 9.04, 8.79, 8.42, 8.43, 8.4, 8.4, 8.06, 7.81, 7.94, 7.48, 7.12, 6.22, 5.81, 5.81, 5.81, 5.81, 5.81, 6.71, 6.26, 4.74, 6.4, 7.6, 7.2, 6.01, 8.94, 6.95, 8.4, 8.91, 8.67, 9.39, 9.32, 9.77, 9.83, 10.28, 17.76, 18.99, 16.76, -0.0, -3.7, -1.14, 2.0, 4.66, 3.2, -0.0, -0.0, -0.0, -0.0, -0.0, -0.0, 10.41, 10.41, 11.2, 11.2, 11.26, 11.26, 11.64, 11.99, 12.39, 12.39, 12.79, 12.5, 12.9, 12.9, 12.9, 13.19, 13.19, 13.19, 13.43, 13.34, 12.95, 12.95, 13.19, 13.19, 13.19, 12.99, 12.99, 12.6, 12.39, 11.99, 11.99, 11.6, 11.6, 11.2, 11.2, 10.8, 10.8, 10.4, 10.68, 10.27, 10.68, 10.68, 10.79, 10.68, 10.15, 9.65, 9.81, 9.4, 9.4, 9.04, 8.79, 8.12, 8.18, 8.6, 8.4, 8.3, 7.98, 8.24, 7.76, 7.45, 6.55, 6.22, 6.21, 6.17, 6.26, 6.26, 5.81, 5.81, 7.15, 7.15, 7.6, 8.49, 8.49, 8.05, 7.6, 8.94, 8.94, 8.67, 9.03, 8.79, 9.11, 9.77, 11.59, 17.4, 18.99, 16.31, -0.0, -3.6, -1.55, -1.27, -0.0, -0.0, -0.0, -0.0, -0.0, -4.0, -4.0, -4.0, 9.77, 9.77, 11.2, 11.2, 10.41, 11.26, 11.64, 12.39, 12.39, 12.39, 12.39, 12.5, 12.9, 12.9, 12.9, 13.19, 13.19, 13.19, 13.43, 13.34, 13.34, 12.95, 13.19, 13.19, 12.79, 12.79, 12.99, 12.2, 12.2, 11.99, 11.99, 11.6, 11.6, 11.2, 11.2, 10.8, 10.8, 10.4, 10.68, 10.27, 10.27, 10.68, 10.68, 10.27, 10.27, 9.6, 9.05, 8.68, 8.68, 8.38, 8.47, 8.12, 8.18, 8.6, 8.6, 8.72, 8.3, 8.4, 7.98, 7.33, 6.85, 6.55, 6.07, 6.2, 6.61, 6.58, 6.71, 5.81, 7.15, 7.15, 8.05, 8.49, 8.94, 8.94, 8.94, 6.01, 7.2, 7.15, 8.15, 8.15, 7.76, 8.79, 10.7, 15.2, 17.74, 15.43, -5.1, -4.19, -3.22, -3.07, -3.47, -2.54, -2.54, -2.83, -4.2, -6.01, -6.01, -6.01, 9.77, 9.77, 11.2, 11.2, 10.41, 10.87, 11.26, 11.99, 11.99, 11.99, 11.75, 12.13, 12.5, 12.9, 12.9, 12.9, 13.19, 13.19, 13.19, 13.34, 13.34, 13.34, 13.34, 13.19, 12.79, 12.79, 12.99, 12.2, 12.2, 11.81, 11.6, 11.6, 11.2, 11.2, 11.2, 10.8, 10.8, 10.4, 10.27, 10.27, 10.27, 10.27, 10.27, 10.27, 9.86, 9.74, 9.05, 9.05, 8.32, 8.03, 8.12, 8.12, 8.23, 8.34, 8.34, 8.58, 8.72, 8.0, 7.6, 7.47, 7.71, 6.85, 6.55, 6.51, 6.36, 6.36, 6.58, 6.71, 6.26, 7.6, 7.6, 8.05, 8.49, 8.94, 8.94, 8.0, 6.32, 6.32, 6.87, 7.28, 7.28, 8.0, 8.99, 12.39, 15.49, 14.42, -6.52, -4.81, -4.01, -3.35, -5.06, -6.01, -6.64, -5.21, -6.64, -6.64, -6.64, -6.64, 9.77, 9.77, 10.73, 10.41, 10.79, 11.26, 11.26, 11.26, 11.99, 11.99, 11.75, 12.13, 12.5, 12.9, 12.9, 12.9, 13.19, 13.19, 13.19, 12.95, 13.34, 13.34, 13.34, 13.19, 12.79, 12.79, 12.79, 12.2, 11.81, 11.81, 11.41, 11.2, 11.2, 11.2, 10.8, 10.8, 10.8, 10.68, 10.68, 10.27, 10.15, 10.27, 10.27, 10.27, 9.86, 9.74, 9.42, 8.42, 8.42, 8.03, 8.12, 8.23, 8.23, 8.34, 8.34, 8.8, 8.58, 8.17, 8.0, 7.6, 7.47, 7.06, 6.79, 6.7, 6.57, 6.79, 6.64, 7.01, 6.71, 7.15, 7.6, 7.6, 8.05, 8.05, 6.01, 6.01, 4.71, 6.32, 6.87, 6.87, 6.45, 7.28, 8.21, 10.18, 13.94, 10.75, -9.64, -4.81, -4.43, -4.22, -6.32, -7.51, -7.51, -6.64, -6.64, -7.81, -7.81, -7.81, 9.77, 9.77, 9.77, 10.41, 10.79, 11.26, 11.26, 11.64, 11.99, 11.99, 11.75, 11.75, 12.13, 12.9, 12.9, 12.9, 13.19, 13.19, 12.65, 13.03, 13.34, 13.34, 13.34, 13.19, 12.79, 12.79, 12.39, 12.2, 11.81, 11.41, 11.41, 11.02, 11.02, 10.63, 10.63, 10.63, 10.23, 10.55, 10.55, 10.15, 10.15, 10.15, 10.27, 9.86, 9.86, 9.74, 9.6, 8.42, 8.42, 7.68, 8.12, 7.87, 8.23, 8.34, 8.34, 8.34, 8.58, 8.58, 7.82, 7.42, 7.03, 6.8, 6.64, 6.54, 6.21, 6.4, 6.79, 6.64, 6.94, 6.79, 7.15, 7.15, 7.15, 7.6, 5.69, 4.71, 4.71, 5.1, 6.01, 6.52, 6.87, 7.13, 7.81, 9.03, 12.93, 12.27, -11.87, -7.2, -4.81, -6.01, -6.64, -8.43, -8.4, -7.81, -8.91, -8.91, -8.91, -8.91, 9.77, 9.77, 9.77, 10.41, 10.79, 10.79, 11.26, 11.64, 11.64, 11.99, 11.75, 11.75, 12.13, 12.5, 12.9, 12.5, 12.5, 13.19, 12.65, 12.65, 13.34, 13.34, 13.34, 13.34, 12.79, 12.39, 12.39, 11.97, 11.81, 11.41, 11.41, 11.02, 11.02, 10.63, 10.63, 10.63, 10.63, 10.55, 10.55, 10.15, 10.15, 10.15, 9.74, 9.86, 9.86, 9.74, 9.2, 8.42, 8.42, 7.68, 8.12, 7.4, 7.87, 7.87, 8.34, 7.96, 7.96, 8.21, 8.21, 7.82, 7.07, 6.7, 6.64, 6.54, 6.4, 6.21, 6.4, 6.52, 7.06, 6.64, 6.26, 7.6, 7.15, 7.15, 6.8, 5.69, 4.71, 4.71, 5.36, 6.32, 6.87, 7.13, 7.41, 9.05, 12.58, 13.29, 0.0, -10.73, -7.6, -7.28, -8.05, -9.13, -9.64, -9.54, -8.91, -8.91, -8.91, -8.91, 9.77, 9.77, 9.77, 10.41, 10.41, 10.79, 11.26, 11.26, 11.64, 11.99, 11.75, 11.75, 12.13, 12.13, 12.5, 12.5, 12.5, 12.79, 12.65, 12.65, 12.65, 13.34, 13.34, 12.95, 12.79, 12.39, 12.39, 11.58, 11.58, 11.41, 11.41, 11.02, 10.63, 10.63, 10.63, 10.63, 10.63, 10.55, 10.55, 10.55, 10.15, 10.15, 10.15, 9.74, 9.86, 9.74, 9.2, 9.03, 8.42, 8.12, 7.35, 7.4, 7.87, 7.87, 8.0, 7.64, 7.96, 7.82, 8.21, 7.82, 7.15, 6.79, 6.7, 6.64, 6.64, 6.18, 6.32, 6.32, 6.9, 6.52, 6.58, 7.6, 6.71, 7.6, 7.15, 6.8, 3.6, 2.06, 3.8, 5.59, 6.32, 6.64, 7.41, 8.79, 11.41, 13.59, 9.16, -2.82, -10.28, -9.64, -9.21, -9.21, -9.64, -9.21, -9.11, -8.94, -8.94, -8.94, 8.85, 8.85, 10.12, 10.12, 10.79, 10.79, 11.26, 11.26, 11.26, 10.91, 11.37, 11.75, 12.13, 12.13, 12.5, 12.5, 12.5, 11.9, 12.27, 12.65, 12.65, 12.95, 12.95, 12.95, 12.56, 12.39, 12.39, 11.58, 11.58, 11.41, 11.41, 11.02, 10.63, 10.63, 10.63, 10.23, 10.23, 10.23, 10.23, 10.15, 10.15, 10.15, 10.15, 9.74, 9.74, 9.74, 9.6, 9.03, 8.42, 7.68, 7.4, 7.4, 7.87, 7.47, 7.64, 7.64, 7.96, 7.58, 7.82, 7.44, 7.15, 6.79, 6.79, 6.7, 6.32, 6.44, 6.18, 6.18, 6.28, 5.93, 5.75, 5.4, 5.36, 7.6, 6.71, 6.8, 5.69, 2.06, 3.15, 4.71, 5.36, 5.89, 6.95, 8.38, 10.43, 12.79, 11.53, 5.4, -2.71, -9.54, -9.39, -9.83, -9.39, -8.94, -8.94, -8.94, -8.94, -8.94, 8.85, 8.85, 10.12, 10.12, 10.79, 10.79, 11.26, 11.26, 11.26, 10.91, 11.37, 11.75, 12.13, 12.13, 12.5, 12.5, 12.5, 11.9, 12.27, 12.65, 12.65, 12.95, 12.95, 12.95, 12.56, 12.39, 12.39, 11.58, 11.58, 11.41, 11.41, 11.02, 10.63, 10.63, 10.63, 10.23, 10.23, 10.23, 10.23, 10.15, 10.15, 10.15, 10.15, 9.74, 9.74, 9.74, 9.6, 9.03, 8.42, 7.68, 7.4, 7.4, 7.87, 7.47, 7.64, 7.64, 7.96, 7.58, 7.82, 7.44, 7.15, 6.79, 6.79, 6.7, 6.32, 6.44, 6.18, 6.18, 6.28, 5.93, 5.75, 5.4, 5.36, 7.6, 6.71, 6.8, 2.69, 2.06, 3.15, 4.71, 5.36, 6.18, 6.53, 7.97, 9.04, 10.94, 11.5, 9.5, 3.68, -2.71, -8.55, -9.11, -9.39, -9.39, -9.39, -9.39, -9.39, -9.39]}, {"header": {"dx": 0.06612293990616946, "dy": 0.0552356325346848, "nx": 98, "ny": 59, "la1": 35.046912555036876, "la2": 31.78801023549047, "lo1": -121.43107172385933, "lo2": -114.95102361305473, "refTime": "2026040916", "parameterCategory": 1, "parameterNumber": 3}, "data": [-7.59, -7.59, -7.59, -7.59, -8.85, -8.85, -8.85, -10.43, -10.43, -12.27, -12.39, -8.22, 0.0, 0.0, 0.0, 0.0, 0.0, 0.0, 0.0, 0.0, 0.0, 0.0, -0.0, 4.0, 4.46, 5.06, 5.21, 4.43, 2.8, -0.0, -0.0, -2.8, -4.43, -6.0, -6.36, -6.26, -7.15, -7.15, -7.6, -5.69, -2.69, -2.39, -5.2, -7.19, -8.58, -8.46, -9.47, -10.99, -10.38, -7.2, 0.0, 1.91, 2.71, 3.39, 4.36, 4.8, 5.35, 5.57, 4.47, 4.17, 3.42, 2.61, 2.71, 2.71, 3.06, 3.06, 3.68, 3.55, 3.19, 4.21, 3.44, 3.32, 2.61, 2.71, 1.84, 1.76, 1.07, 0.0, 0.0, 0.0, -4.6, -5.06, -5.81, -5.81, -6.26, -5.2, -3.6, -2.69, -3.15, -3.52, -4.18, -5.75, -5.75, -5.4, -5.08, -3.44, 0.0, 0.0, -7.36, -7.59, -7.59, -7.59, -8.85, -8.85, -9.12, -12.16, -11.8, -12.27, -11.99, -9.17, -8.22, -4.8, 0.0, 0.0, 0.0, 0.0, 0.0, -4.4, 0.0, 0.0, 0.0, -0.0, 2.12, 3.72, 3.72, 4.74, 3.0, -0.0, -3.0, -4.43, -5.2, -5.81, -6.26, -6.79, -7.63, -7.63, -8.06, -6.32, -5.46, -6.97, -8.3, -10.58, -11.7, -12.2, -12.95, -11.73, -8.74, 0.0, 4.32, 3.07, 3.92, 5.21, 5.52, 5.75, 5.35, 5.2, 4.17, 4.17, 3.42, 3.42, 3.29, 2.82, 2.82, 3.68, 3.68, 3.55, 3.32, 3.23, 3.34, 3.23, 2.44, 2.51, 1.76, 1.62, 1.01, 0.0, 0.0, 0.0, -4.6, -5.06, -5.81, -5.81, -6.26, -5.2, -3.6, -2.69, -3.15, -3.52, -4.18, -5.75, -5.75, -5.4, -5.08, -3.44, 0.0, 0.0, -7.36, -7.59, -7.59, -7.59, -10.43, -10.43, -10.75, -12.16, -12.16, -12.79, -10.41, -9.2, -5.2, -5.2, -4.8, -3.39, -3.53, -3.53, -3.53, -5.0, -3.11, 0.0, -11.18, -0.0, -0.0, -0.0, 2.12, 2.12, 3.0, -0.0, -3.4, -6.4, -7.15, -7.6, -4.74, -6.01, -5.69, -7.15, -8.05, -8.03, -8.22, -9.8, -11.86, -13.14, -14.41, -13.09, -11.45, -6.81, 0.0, 1.52, 2.82, 3.61, 4.8, 5.21, 6.15, 5.75, 5.35, 4.47, 4.17, 3.42, 3.19, 3.19, 3.29, 3.68, 4.47, 4.47, 4.33, 4.33, 4.06, 3.96, 3.34, 2.54, 1.65, 0.8, 0.82, 0.0, 0.0, 0.0, -1.96, -3.25, -4.6, -7.2, -7.6, -6.71, -5.51, -7.15, -7.2, -4.71, -4.0, -4.78, -5.99, -6.96, -7.18, -6.7, -4.75, 0.0, 0.0, 0.0, -7.36, -7.36, -7.59, -9.22, -10.43, -10.43, -10.75, -12.16, -12.65, -12.87, -10.8, -8.93, -8.53, -7.9, -7.9, -6.2, -6.45, -5.4, -5.4, -2.71, -3.53, -4.6, -7.9, -8.22, -4.8, -0.0, -0.0, -0.0, 3.2, -0.0, -0.0, -8.0, -8.94, -8.0, -6.32, -5.21, -6.95, -7.9, -9.86, -11.16, -11.96, -13.28, -12.99, -11.73, -9.67, -6.36, -2.5, 0.0, 1.02, 0.98, 1.84, 3.11, 4.18, 4.99, 5.52, 5.52, 4.62, 4.47, 3.42, 3.42, 3.42, 3.42, 4.17, 4.17, 5.2, 5.2, 4.87, 4.32, 4.84, 5.2, 4.13, 3.58, 1.95, 0.0, 0.0, -0.82, 0.0, 0.0, 0.0, -6.0, -6.01, -5.6, -7.15, -5.94, -7.81, -8.94, -8.48, -6.01, -5.82, -6.72, -7.93, -7.62, -6.7, -4.4, 0.0, 0.0, 0.0, 0.0, -7.36, -7.36, -7.59, -9.22, -10.43, -10.43, -10.75, -13.03, -12.65, -12.87, -11.21, -9.6, -10.4, -7.9, -7.59, -8.22, -8.22, -7.24, -7.24, -8.53, -8.85, -9.6, -10.73, -11.62, -9.6, -7.9, -6.95, -0.0, -0.0, -0.0, 0.0, -9.83, -11.62, -10.79, -7.9, -7.9, -7.9, -9.17, -12.82, -14.82, -14.88, -11.66, -7.82, -4.58, -2.32, -1.0, 0.0, 0.0, 0.0, 0.85, 1.84, 2.95, 3.82, 4.6, 4.8, 4.62, 3.53, 3.68, 3.68, 3.42, 3.42, 4.17, 4.68, 5.0, 5.86, 5.51, 4.87, 5.51, 6.56, 6.31, 5.91, 4.41, 3.69, 1.08, 0.0, -1.47, -0.93, 0.0, 0.0, -6.2, -5.58, -5.09, -6.71, -7.15, -7.45, -8.49, -6.98, -5.82, -7.26, -9.06, -7.89, -6.7, -4.8, 0.0, 1.84, 0.0, 0.0, -1.11, -7.36, -7.36, -8.94, -9.22, -9.22, -10.43, -10.75, -11.52, -12.65, -11.88, -11.21, -9.2, -10.0, -7.59, -7.9, -7.9, -9.3, -8.53, -8.53, -9.77, -10.73, -11.71, -13.41, -12.96, -12.07, -12.07, -11.62, -11.18, -10.73, -10.73, 0.0, -6.64, -8.18, -8.53, -8.59, -8.59, -8.3, -8.05, -12.33, -16.79, -13.39, -10.12, -5.6, -3.6, -3.04, -2.81, -2.53, -1.64, -0.89, 0.0, 1.01, 1.92, 2.82, 3.08, 2.94, 3.06, 2.82, 3.06, 3.68, 3.42, 3.68, 4.3, 5.0, 5.63, 5.86, 5.51, 4.87, 5.41, 5.86, 5.8, 4.87, 4.76, 4.67, 3.05, 0.0, 0.0, -0.99, 0.0, 0.0, -6.7, -5.2, -6.64, -6.64, -7.6, -8.05, -8.24, -7.81, -8.85, -9.57, -9.21, -6.63, -3.96, 0.0, 2.69, 0.0, 0.0, -2.17, -2.49, -7.36, -7.36, -8.94, -9.22, -9.22, -10.43, -11.52, -11.52, -12.79, -12.39, -11.45, -9.64, -9.6, -7.59, -8.53, -7.9, -8.53, -9.77, -9.62, -8.85, -8.3, -7.36, -8.18, -14.84, -15.2, -14.75, -15.2, -14.3, -11.6, -9.6, -10.73, -9.39, -4.4, -5.06, -5.77, -6.2, -7.1, -5.15, -7.69, -12.72, -13.28, -11.12, -10.47, -7.44, -5.18, -4.43, -3.04, -1.91, -1.05, 0.0, 0.0, 1.07, 2.19, 2.0, 2.08, 2.08, 1.91, 2.08, 2.82, 2.93, 3.68, 4.62, 4.3, 4.13, 4.8, 4.68, 4.68, 4.13, 4.13, 4.06, 3.34, 3.25, 2.91, 2.64, 2.19, 1.3, 1.38, 0.94, 0.0, -1.76, -5.93, -7.07, -8.4, -9.54, -10.18, -10.73, -10.12, -9.27, -8.78, -7.19, 0.0, 3.82, 3.6, 3.8, 0.0, -2.46, -3.11, -3.77, -6.2, -7.93, -7.93, -8.94, -9.22, -9.22, -11.52, -11.52, -12.79, -12.33, -10.75, -9.7, -9.97, -9.3, -6.94, -7.9, -8.53, -8.3, -8.3, -7.44, -3.68, 0.0, 0.0, -2.57, -6.8, -6.8, -11.06, -16.09, -13.19, -11.99, -12.07, -12.07, -11.87, -8.85, -6.5, -5.6, -5.11, -3.53, 0.0, 0.0, -12.96, -12.39, -12.57, -10.61, -5.98, -2.81, 0.0, 0.0, 0.0, 0.0, 0.0, 0.0, 1.16, 1.16, 1.05, 1.05, 0.97, 0.97, 0.97, 1.91, 2.82, 2.82, 2.6, 2.6, 3.39, 3.39, 3.29, 2.49, 1.69, 1.63, 2.37, 1.61, 0.79, 0.84, 2.01, 2.01, 1.97, 1.98, 0.0, -0.95, -4.6, -9.27, -8.54, -9.1, -10.8, -10.94, -9.69, -8.91, -5.8, 0.0, 11.18, 6.26, 7.6, 0.0, -1.67, -2.98, -3.45, -3.87, -6.2, -7.93, -7.93, -7.93, -9.22, -10.43, -10.43, -11.52, -11.9, -11.92, -10.88, -11.35, -12.71, -12.46, -11.2, -11.2, -10.79, -9.48, -8.59, -8.38, -6.0, 0.0, 0.0, -2.02, -4.1, 0.0, 0.0, -13.86, -13.99, -14.3, -13.15, -14.75, -12.65, -7.69, -5.6, -5.2, -5.0, 0.0, 9.2, 9.2, 12.96, 0.0, -4.66, -3.04, 0.0, 2.71, 2.93, 2.19, 1.45, 1.33, 0.0, 0.0, 0.0, 0.0, 0.0, 0.0, 0.0, 0.0, 0.97, 0.97, 0.93, 0.89, 0.85, 1.84, 2.71, 2.49, 1.58, 1.63, 0.89, 0.82, 0.77, 0.72, 0.0, 0.0, 0.84, 0.96, 0.89, 0.0, 0.0, 0.0, -1.03, -8.58, -7.56, -6.79, -7.74, -8.22, -8.02, -6.45, -3.77, 0.0, 5.2, 5.2, 4.74, 0.0, -2.69, -2.69, -4.4, -4.2, -6.2, -7.69, -7.93, -7.93, -8.18, -10.43, -10.43, -10.43, -10.99, -11.6, -11.44, -11.6, -10.8, -12.6, -13.53, -12.72, -13.07, -13.7, -13.56, -12.33, -11.6, -11.12, -10.82, -10.12, -10.12, -6.45, 0.0, -10.73, -13.19, -10.12, -10.43, 0.0, 0.0, 6.2, 0.0, 0.0, 0.0, 7.81, 10.28, 8.94, 10.73, 12.3, 3.53, 2.28, 2.06, 2.69, 2.69, 2.02, 3.53, 2.7, 2.39, 1.28, 0.0, 0.0, 0.0, 0.0, 0.0, 0.0, 0.0, 0.0, 0.0, 0.0, 0.0, 0.85, 1.68, 1.69, 0.8, 0.8, 0.0, 0.0, 0.0, -0.72, -0.75, 0.0, 0.0, -0.76, -1.54, -2.44, -1.41, -0.74, -0.83, -3.05, -9.48, -5.37, -4.68, -4.98, -4.99, -4.18, -2.23, 0.0, 1.05, 1.7, 0.0, -1.84, -2.98, -3.81, -3.61, -4.0, -6.2, -7.69, -7.93, -8.18, -8.18, -9.44, -10.43, -11.33, -10.99, -11.37, -11.33, -11.88, -10.82, -10.82, -11.64, -12.5, -14.3, -14.44, -14.44, -15.85, -16.54, -16.38, -15.77, -13.81, -13.7, -9.17, -4.6, 0.0, 0.0, 0.0, 9.17, 12.96, 12.07, 11.18, 9.3, 3.82, 8.22, 9.83, 7.15, 7.15, 7.15, 9.33, 9.2, 0.0, 0.0, 0.0, 0.0, 2.06, 1.67, 2.83, 2.28, 2.04, 0.98, 0.0, 0.0, 0.0, -0.97, -2.16, -2.16, -2.08, 0.0, 0.0, 1.0, 2.28, 2.13, 1.92, 1.7, 0.93, 0.0, -1.84, -2.45, -2.81, -2.95, -2.35, -2.28, -3.01, -3.87, -4.75, -4.93, -4.0, -2.98, -1.68, -4.81, -9.96, -6.32, -3.55, -3.8, -2.69, -3.11, -2.06, -0.82, 0.0, 0.0, -2.12, -3.6, -3.82, -3.45, -2.06, -6.2, -7.69, -7.93, -8.18, -8.18, -9.44, -9.44, -10.43, -10.12, -10.18, -11.16, -10.94, -10.96, -9.06, -6.76, -5.99, -6.63, -8.85, -9.88, -10.61, -10.33, -9.88, -8.29, -9.66, -4.24, 0.0, 0.0, 1.18, 1.84, 3.0, 7.6, 6.71, 6.51, 6.07, 10.73, 10.28, 10.28, 7.6, 7.6, 7.81, 7.37, 7.6, 9.39, 0.0, 0.0, 0.0, 0.0, 0.0, 0.0, 0.0, 0.0, 0.99, 0.89, 0.89, 0.0, 0.0, 0.0, -1.09, -4.39, -1.69, 1.75, 4.37, 5.86, 5.06, 5.1, 3.98, 3.68, 2.71, 0.0, -2.71, -3.91, -4.24, -4.55, -4.81, -4.81, -4.71, -5.48, -5.93, -6.44, -6.57, -5.15, -2.63, -1.77, -11.33, -8.38, -6.01, -5.2, -4.2, -3.14, -2.83, -1.84, -1.07, 0.0, -2.12, -3.45, -4.6, -3.45, -1.84, -6.2, -6.2, -7.93, -7.32, -7.32, -8.57, -9.44, -10.12, -10.12, -9.8, -10.43, -10.69, -10.96, -10.22, -8.2, -5.64, -3.0, -3.02, -3.14, -2.81, -2.47, -1.57, 0.0, 0.0, 1.5, 1.33, 1.2, 1.16, 1.26, 0.0, 0.0, 3.47, 6.26, 5.51, 5.94, 5.6, 6.0, 7.6, 7.6, 7.6, 7.6, 7.15, 9.39, 8.94, 0.0, -5.69, -5.69, -4.71, -2.06, -1.67, -1.07, -1.0, 0.0, 0.0, 0.0, 1.33, 1.33, 1.45, -3.68, 5.37, 9.39, 9.7, 8.4, 8.05, 6.95, 6.44, 6.84, 6.08, 4.3, 2.28, 0.0, -2.1, -4.07, -5.63, -6.33, -5.93, -6.15, -6.08, -6.56, -5.99, -5.09, -4.17, -3.73, -5.62, -8.85, -8.85, -7.59, -6.3, -5.46, -2.98, -2.98, -1.96, -1.25, -1.84, -3.45, -3.65, -1.95, -1.18, -6.2, -5.46, -6.88, -7.1, -7.32, -8.31, -8.31, -8.31, -9.31, -10.12, -10.12, -10.69, -10.43, -10.22, -9.16, -7.57, -5.65, -3.92, -2.89, -2.64, -1.67, -1.5, -0.74, 0.0, 0.0, 0.78, 1.42, 1.42, 1.48, 0.83, 0.0, 0.0, 3.8, 6.26, 6.26, 6.26, 6.26, 7.15, 7.15, 7.6, 7.6, 7.15, 10.28, 11.18, 0.0, 0.0, -4.46, -5.46, -4.8, -2.6, -1.93, -3.98, -2.63, 0.0, 3.04, 5.98, 3.49, 1.33, 0.0, 5.37, 9.21, 10.28, 10.08, 9.64, 8.4, 7.56, 6.48, 6.42, 6.44, 6.04, 5.95, 3.82, 0.0, -3.87, -5.46, -5.0, -4.8, -4.05, -4.4, -4.4, -4.78, -4.92, -5.29, -6.05, -7.36, -8.83, -9.17, -9.2, -7.15, -3.4, -3.3, -3.77, -2.82, -2.82, -2.83, -2.97, -1.65, -0.83, -5.46, -5.46, -6.88, -7.1, -7.1, -7.1, -8.31, -8.31, -9.31, -8.58, -9.42, -9.8, -10.43, -9.62, -9.66, -8.21, -6.63, -5.81, -4.54, -3.58, -2.5, -1.59, -1.56, -0.8, 0.0, 0.0, 0.77, 1.42, 1.44, 0.74, 0.0, -0.89, 0.0, 0.0, 5.06, 7.6, 7.2, 5.37, 7.6, 7.15, 7.6, 8.49, 10.73, 10.73, 8.94, 8.94, 6.32, 0.0, 0.0, 0.0, 0.0, 0.0, 4.4, 8.49, 7.15, 6.8, 0.0, 0.0, 0.0, 8.94, 8.22, 9.11, 8.94, 8.94, 9.11, 8.18, 6.95, 5.06, 6.14, 5.21, 5.64, 5.0, 5.2, 4.8, 3.25, 6.95, 10.28, 0.0, -4.6, -4.6, -5.06, -5.21, -4.5, -4.13, -3.25, -6.44, -8.59, -10.0, -8.4, -5.1, -5.46, -4.94, -4.16, -3.4, -2.4, -2.54, -2.67, -2.67, -5.46, -5.46, -6.88, -7.1, -7.1, -7.1, -8.31, -7.58, -8.58, -8.58, -9.71, -9.06, -9.22, -9.62, -9.39, -8.43, -7.78, -6.81, -5.65, -4.43, -3.49, -2.51, -1.6, -0.83, 0.0, 0.79, 0.75, 1.39, 1.36, 0.66, 0.0, -0.84, -1.96, 0.0, 0.0, 5.06, 5.37, 4.22, 7.2, 8.05, 7.15, 7.15, 8.05, 7.2, 7.2, 7.2, 8.49, 8.05, 8.05, 7.2, 6.01, 5.37, 7.63, 8.05, 7.6, 6.4, 0.0, 0.0, 4.0, 9.39, 8.0, 8.4, 7.6, 8.05, 7.6, 7.2, 4.22, 5.21, 6.95, 4.2, 2.44, 1.09, 12.52, 5.2, 6.2, 10.6, 12.07, 10.8, 0.0, -9.6, -8.55, -6.95, -4.96, -2.98, -2.83, -2.21, -3.61, -5.06, -6.79, -5.69, -5.21, -5.82, -5.37, -3.91, -3.7, -3.8, -3.6, -3.6, -5.46, -5.46, -7.1, -6.88, -6.2, -6.4, -7.58, -7.82, -7.58, -8.58, -8.85, -9.06, -9.49, -8.94, -8.68, -8.2, -7.76, -6.63, -5.65, -4.55, -3.41, -2.39, -1.6, 0.0, 0.77, 0.73, 0.7, 0.0, 0.0, 0.0, 0.0, -1.69, -3.9, -4.52, -1.4, 2.12, 5.06, 6.4, 7.15, 7.6, 7.15, 6.71, 8.49, 7.2, 8.4, 8.0, 8.0, 7.6, 7.6, 7.6, 8.94, 8.94, 8.94, 8.94, 6.32, 6.32, 6.32, 8.4, 9.39, 9.2, 7.27, 6.64, 7.6, 8.05, 8.05, 6.36, 5.37, 5.69, 2.17, 1.26, -1.22, -5.0, -0.0, 2.82, 10.4, 11.84, 10.41, 9.96, 5.6, 0.0, -7.59, -8.8, -7.67, -6.28, -5.1, -5.69, -2.33, -3.8, -4.71, -4.94, -6.64, -6.99, -6.8, -6.01, -5.9, -5.86, -5.13, -5.13, -5.46, -5.46, -5.63, -6.4, -6.2, -6.2, -6.4, -7.58, -7.82, -8.85, -8.18, -8.43, -8.72, -9.49, -8.94, -7.66, -7.76, -6.81, -5.81, -3.79, -2.51, -2.39, -2.32, 0.0, 0.78, 0.73, 0.0, -0.69, -0.69, -1.45, -2.16, -3.35, -5.95, -7.2, -4.93, 0.0, 0.0, 4.43, 6.71, 7.15, 7.6, 8.05, 8.05, 6.01, 6.32, 6.64, 6.32, 8.0, 8.0, 8.4, 9.39, 9.39, 9.39, 9.39, 8.94, 9.39, 9.39, 9.39, 9.83, 6.95, 6.95, 6.64, 6.32, 8.49, 8.49, 7.15, 5.6, 0.0, -5.9, -3.92, -2.93, 0.0, 12.07, 11.87, 10.01, 9.77, 9.84, 8.54, 7.78, 4.75, 1.58, 0.0, -6.32, -9.21, -9.39, -8.33, -7.44, -4.71, -4.94, -6.17, -6.3, -7.81, -6.94, -7.32, -7.27, -6.95, -6.64, -6.64, -5.46, -5.46, -4.87, -6.4, -6.2, -6.2, -6.4, -7.58, -7.16, -7.16, -8.18, -8.43, -8.05, -8.97, -8.94, -9.42, -7.73, -7.42, -5.26, -2.8, -2.44, -3.73, -4.71, -3.72, -2.31, -2.96, -3.01, -4.12, -4.92, -4.62, -4.79, -5.14, -6.81, -8.78, -8.29, -3.96, 0.0, 2.97, 9.83, 8.49, 6.79, 7.21, 7.2, 5.69, 6.01, 6.32, 6.32, 6.64, 8.4, 8.4, 9.39, 9.39, 9.39, 8.94, 8.94, 9.39, 9.39, 9.39, 9.83, -0.0, -0.0, -0.0, 6.32, 7.21, 7.81, 7.6, 7.15, 0.0, -3.14, -2.42, 0.0, 3.96, 5.55, 5.31, 4.81, 3.14, 2.24, 2.24, 3.29, 3.18, 1.76, 0.0, -8.8, -9.54, -9.83, -9.21, -9.2, -8.49, -7.06, -7.06, -6.95, -7.64, -8.17, -7.85, -8.06, -7.35, -8.03, -8.03, -5.46, -5.46, -4.87, -6.2, -6.2, -6.2, -6.4, -6.95, -7.16, -7.16, -7.16, -8.43, -8.05, -8.97, -8.4, -8.43, -8.18, -7.92, -7.6, -6.29, -5.71, -6.24, -8.16, -9.67, -9.17, -8.67, -7.84, -7.2, -6.9, -5.87, -6.03, -5.51, -6.87, -8.97, -9.87, -8.43, -4.1, 0.0, 2.49, 5.69, 7.6, 6.01, 5.69, 4.74, 3.79, -0.0, 6.01, 6.32, 6.64, 8.4, 8.4, 8.0, 8.94, 8.94, 8.05, 8.49, 0.0, 0.0, 0.0, 0.0, -0.0, 6.32, 7.6, 7.07, 6.8, 7.01, 7.15, 3.97, 1.0, 2.39, 4.81, 6.24, 6.52, 4.16, 1.6, -0.82, -3.25, -4.49, -1.0, 0.0, 0.0, 1.09, 0.0, -4.2, -6.32, -8.49, -8.49, -7.07, -7.9, -6.64, -6.95, -8.75, -9.97, -9.24, -8.55, -8.42, -8.42, -8.42, -5.46, -4.87, -4.87, -6.2, -6.2, -6.2, -5.63, -5.81, -7.16, -7.38, -7.16, -6.8, -8.05, -8.05, -8.4, -8.68, -8.18, -8.68, -8.21, -9.49, -8.9, -8.77, -9.17, -9.52, -10.19, -9.23, -6.85, -6.47, -5.8, -5.05, -5.05, -4.23, -5.51, -10.13, -12.01, -10.33, -7.59, -4.1, -1.91, 0.0, 0.0, 0.0, -0.0, -0.0, -0.0, 5.69, 6.01, 4.0, 6.32, 8.0, 7.6, 7.6, 7.2, 8.49, 8.49, 8.05, 0.0, -8.49, 0.0, 0.0, 0.0, -0.0, 6.01, 6.01, 6.32, 6.94, 7.15, 6.32, 5.15, 5.21, 6.45, 6.4, 5.46, 1.61, -2.39, -5.41, -8.94, -9.24, -7.51, -4.3, -1.69, 0.0, 0.0, -0.0, -0.0, -0.0, -6.32, -8.49, -6.01, -6.01, -6.32, -9.36, -10.41, -9.24, -8.91, -8.24, -8.24, -8.24, -5.46, -4.87, -4.87, -4.87, -6.2, -5.63, -5.63, -5.81, -5.99, -7.38, -6.8, -6.8, -7.82, -8.05, -7.49, -7.88, -8.43, -8.4, -8.99, -9.78, -8.61, -6.99, -7.63, -8.7, -9.0, -8.0, -6.03, -4.21, -2.58, -1.88, -1.93, -2.04, -2.65, -6.12, -12.01, -12.01, -9.77, -7.69, -4.93, -4.4, -3.82, -4.0, 0.0, -0.0, 0.0, 5.81, 6.01, 3.8, 3.8, 7.2, 6.8, 7.2, 7.2, 8.05, 8.05, 7.2, 0.0, -8.94, -9.39, -8.94, -8.05, 0.0, 6.01, 7.07, 7.63, 7.6, 7.6, 7.21, 6.08, 8.05, 8.55, 8.54, 6.66, 2.28, -6.32, -10.22, -12.5, -12.87, -11.52, -8.85, -6.0, -2.83, -1.84, -9.39, -2.97, -4.0, -8.0, -9.39, -6.32, -6.64, -7.9, -8.22, -8.69, -8.17, -8.14, -7.47, -7.82, -7.82, -5.46, -5.46, -4.87, -4.87, -6.2, -5.63, -5.81, -5.81, -5.99, -7.38, -6.8, -6.8, -7.0, -7.49, -7.49, -7.88, -8.43, -7.73, -8.83, -8.77, -7.23, -5.36, -4.53, -5.64, -6.99, -6.64, -5.38, -4.23, -3.18, -2.28, -1.57, -1.65, -1.93, -4.01, -8.21, -10.33, -10.05, -8.18, -5.8, -5.2, -4.8, -4.6, -5.46, -6.32, 0.0, 5.81, 5.69, 3.6, 5.37, 5.06, 6.8, 6.8, 6.8, 7.6, 7.6, 7.6, 6.79, 0.0, -8.94, -7.6, -8.05, 0.0, 8.06, 8.06, 7.81, 7.6, 6.71, 6.36, 6.7, 8.67, 9.83, 6.17, 4.52, -0.0, -4.11, -9.54, -12.6, -14.03, -13.49, -12.27, -9.26, -5.7, -2.46, -2.97, -9.39, -8.4, -9.39, -8.4, -7.27, -8.22, -9.36, -8.35, -7.27, -6.7, -7.81, -6.94, -7.2, -7.2, -5.46, -5.46, -4.87, -4.87, -5.63, -5.63, -5.63, -5.81, -5.99, -5.64, -6.8, -7.0, -7.0, -7.49, -7.49, -7.0, -7.88, -7.73, -8.46, -8.28, -7.04, -6.16, -5.09, -3.95, -5.06, -5.5, -5.51, -4.44, -4.04, -3.18, -2.17, -2.17, -2.39, -3.9, -5.5, -7.2, -6.34, -7.54, -6.0, -4.72, -4.18, -3.99, -4.05, -3.82, 0.0, 5.37, 6.01, 3.8, 5.37, 6.32, 6.7, 7.21, 7.21, 7.21, 7.15, 7.15, 6.71, 6.79, 0.0, -8.05, -6.71, -0.0, 6.4, 6.94, 6.58, 5.81, 7.89, 8.0, 2.83, 3.8, 0.0, -2.42, 0.0, 0.0, -3.68, -8.55, -8.94, -12.14, -13.28, -12.62, -10.66, -7.9, -4.98, -3.15, -8.94, -6.32, -0.0, 0.0, 9.39, -0.0, -8.72, -8.06, -7.28, -5.37, -5.93, -6.8, -7.03, -7.03, -5.46, -5.46, -4.87, -4.87, -4.87, -4.38, -5.63, -5.81, -5.99, -5.64, -6.8, -6.8, -6.47, -7.49, -7.49, -7.0, -7.88, -7.21, -7.54, -8.28, -7.2, -7.23, -6.16, -5.72, -4.71, -4.95, -5.37, -4.44, -4.23, -3.93, -3.18, -2.96, -2.21, -3.22, -5.09, -6.66, -5.98, -6.35, -5.81, -4.48, -3.65, -3.49, -3.99, -4.6, -3.87, -2.28, 0.0, -0.0, 2.8, 4.01, 4.46, 6.8, 5.95, 6.79, 7.21, 7.15, 7.15, 6.26, 7.6, 0.0, -8.05, -0.0, 4.74, 5.81, 5.73, 8.05, 8.77, 8.4, 6.32, -2.54, -3.8, -2.59, 0.0, 0.0, 0.0, 0.0, -13.41, -11.18, -8.85, -10.99, -11.81, -9.69, -7.42, -5.1, 0.0, -0.0, 2.69, 7.44, 7.44, 2.83, -2.83, -7.07, -8.05, -6.32, -5.06, -5.95, -6.21, -6.21, -5.46, -5.46, -4.87, -4.87, -4.87, -4.38, -5.63, -5.81, -5.48, -5.48, -6.8, -6.8, -6.47, -6.47, -7.49, -7.0, -7.0, -7.42, -7.0, -7.36, -7.0, -6.85, -6.9, -5.87, -5.72, -4.85, -4.85, -4.32, -4.44, -4.23, -3.33, -3.18, -2.96, -3.24, -4.8, -5.78, -6.19, -5.09, -5.35, -4.58, -3.82, -3.36, -3.36, -3.65, -4.18, -4.05, -3.65, -5.69, -0.0, 3.76, 4.11, 4.65, 6.13, 6.64, 7.37, 7.37, 6.94, 7.15, 7.15, 7.2, 3.8, 0.0, 7.21, 6.64, 6.71, 8.94, 9.21, 8.4, 3.8, 0.0, -2.54, -2.7, -0.8, 0.79, 2.3, 3.58, 0.0, -10.3, -7.98, -8.77, -11.8, -12.07, -10.02, -5.69, -1.49, 8.05, 6.01, 6.01, 8.0, -0.0, -0.0, -7.07, -8.49, -7.06, -6.13, -5.59, -6.4, -6.4, -5.46, -5.46, -4.87, -4.87, -4.87, -4.38, -4.38, -5.63, -5.31, -5.48, -6.8, -6.8, -6.47, -6.29, -7.0, -7.0, -7.0, -6.56, -7.42, -7.0, -7.36, -7.0, -6.54, -6.72, -5.99, -5.72, -5.56, -4.98, -4.32, -4.12, -3.33, -3.33, -3.18, -3.18, -3.41, -5.81, -6.52, -6.52, -6.52, -5.26, -4.66, -3.55, -3.16, -3.36, -2.71, -2.95, -3.25, -3.7, -3.6, 0.0, 4.84, 4.37, 5.29, 5.95, 5.82, 6.64, 7.37, 7.15, 6.71, 6.0, 6.01, 7.2, 9.39, 7.15, 8.94, 8.77, 8.4, 6.32, 2.69, 0.0, -2.69, -2.83, -1.62, 0.0, 1.61, 3.28, 1.83, -6.47, -8.73, -8.05, -10.52, -12.79, -11.29, -6.98, -2.54, 5.06, 8.05, 7.6, 8.49, 8.49, 8.49, 8.49, -8.05, -8.38, -6.8, -6.8, -6.4, -6.4, -5.46, -5.46, -4.87, -4.87, -4.87, -4.38, -4.38, -5.63, -5.31, -5.31, -6.6, -6.29, -6.29, -6.29, -5.85, -6.8, -6.56, -6.56, -6.56, -7.0, -6.62, -7.0, -6.66, -6.35, -5.83, -5.83, -5.83, -5.83, -5.23, -4.21, -4.01, -3.24, -3.18, -3.18, -3.33, -4.67, -6.14, -7.6, -7.6, -5.98, -5.81, -4.36, -3.07, -2.21, -1.56, -1.5, -2.15, -3.36, -3.63, -3.17, 0.0, 5.09, 4.37, 5.65, 5.95, 5.6, 6.94, 7.15, 6.71, 6.71, 7.15, 8.05, 8.05, 7.6, 8.94, 9.97, 4.96, 0.0, 0.0, 0.0, 0.0, -2.04, -2.47, -2.47, -1.69, -1.55, -0.87, -4.52, -8.85, -7.52, -8.43, -12.6, -12.82, -8.22, -2.97, 9.39, 7.6, 8.05, 8.49, 8.05, 8.05, 8.49, -8.05, -8.05, -7.98, -7.53, -6.99, -6.99, -4.87, -4.87, -4.87, -4.87, -4.87, -4.38, -4.38, -5.81, -5.31, -5.31, -6.6, -6.29, -6.47, -6.47, -6.02, -6.8, -6.37, -6.37, -6.37, -5.99, -7.0, -6.62, -6.27, -5.96, -5.67, -5.96, -5.96, -6.13, -5.23, -5.23, -4.21, -4.01, -3.09, -3.09, -3.09, -4.21, -5.81, -7.6, -7.6, -6.99, -5.81, -5.28, -3.91, -3.65, -1.75, -1.43, -2.25, -3.68, -4.58, -3.88, -2.98, 0.0, 4.92, 4.37, 5.05, 5.36, 5.75, 6.64, 6.17, 6.23, 5.72, 5.69, 7.37, 8.49, 9.21, 8.4, 6.64, 0.0, -4.71, -2.17, 0.0, -0.93, -1.62, -4.13, -6.33, -7.13, -5.55, -5.4, -8.4, -7.15, -6.71, -11.56, -13.19, -11.28, 0.0, 7.37, 6.07, 7.21, 7.2, 7.37, 7.89, 7.6, 7.6, -7.45, -7.6, -7.85, -7.63, -7.63, -4.87, -4.87, -4.87, -4.87, -4.87, -4.38, -4.38, -5.81, -5.31, -5.31, -5.31, -6.29, -6.29, -6.47, -6.19, -7.0, -6.8, -6.37, -6.37, -5.99, -6.16, -6.62, -5.81, -5.49, -5.21, -5.96, -5.79, -5.96, -5.36, -5.36, -5.09, -4.1, -3.9, -3.73, -3.09, -4.01, -5.5, -6.99, -7.6, -7.18, -6.81, -6.05, -4.93, -4.12, -2.75, -1.67, -3.18, -5.62, -6.76, -6.72, -5.75, -4.34, 0.0, 4.66, 4.12, 4.74, 5.38, 5.72, 5.58, 5.58, 4.19, 4.56, 6.32, 8.49, 8.38, 8.17, 7.6, 3.11, -3.4, -5.37, -3.6, -0.8, 0.0, -1.6, -5.67, -8.06, -7.45, -4.64, -7.9, -8.55, -9.54, -9.89, -11.6, -13.15, -12.96, 7.07, 6.01, 3.6, 3.0, 5.06, 7.45, 8.05, 8.49, -8.05, -8.49, -8.44, -8.14, -8.14, -4.71, -4.71, -4.87, -4.87, -4.87, -4.38, -5.63, -5.81, -5.31, -5.48, -5.48, -5.31, -6.29, -6.29, -6.47, -6.02, -7.0, -6.56, -6.56, -6.16, -6.16, -5.81, -5.81, -5.49, -5.49, -5.21, -5.34, -5.18, -4.53, -5.21, -5.09, -4.71, -4.5, -4.3, -3.73, -3.73, -4.43, -6.14, -7.4, -7.6, -6.99, -6.43, -5.8, -5.09, -4.5, -5.06, -5.36, -6.85, -7.58, -9.48, -7.56, -4.98, -3.55, 0.0, 4.66, 4.12, 4.71, 5.0, 5.0, 4.58, 3.45, 3.4, 6.01, 8.49, 8.33, 7.94, 7.45, 6.01, 0.0, -4.29, -3.22, 0.0, 0.89, 0.78, -0.82, -5.67, -7.11, -5.48, -4.62, -7.26, -11.18, -10.73, -10.6, -12.72, -13.41, 5.2, 6.21, 3.82, 3.15, 4.02, 6.8, 7.45, 7.6, 7.6, -8.94, -8.89, -8.77, -8.77, -4.71, -4.71, -4.71, -4.87, -4.87, -4.38, -5.63, -5.81, -5.31, -5.48, -5.48, -5.48, -6.1, -6.47, -6.47, -6.02, -7.0, -6.74, -6.74, -6.74, -6.34, -6.34, -5.81, -5.81, -5.49, -5.49, -5.34, -5.31, -5.09, -5.18, -5.67, -5.83, -5.56, -4.5, -4.5, -3.73, -4.1, -5.81, -6.52, -6.52, -6.52, -6.62, -6.2, -5.0, -5.1, -5.26, -5.2, -4.05, -4.38, -5.6, -5.29, -4.46, -3.11, -3.22, -1.83, 4.24, 3.79, 4.65, 4.56, 4.16, 3.22, 4.22, 8.49, 8.05, 8.49, 8.05, 7.6, 7.2, 0.0, 0.0, 0.0, 3.8, 0.0, 0.0, 0.0, -2.52, -6.73, -6.84, -5.63, -5.4, -7.26, -12.07, -12.07, -11.4, -12.96, -0.0, 6.2, 6.2, -0.0, 4.96, 6.44, 7.89, 7.45, 7.15, -8.49, -8.94, -8.44, -8.44, -4.71, -4.71, -4.71, -4.87, -4.87, -4.87, -5.63, -5.81, -5.31, -5.48, -5.48, -5.48, -6.1, -6.1, -6.47, -6.02, -6.02, -6.02, -6.56, -6.74, -6.34, -6.34, -5.98, -5.81, -5.34, -5.34, -5.34, -5.31, -5.86, -5.62, -5.91, -5.96, -6.13, -5.09, -4.85, -3.9, -4.1, -5.5, -6.14, -6.52, -6.52, -6.34, -5.63, -5.4, -4.54, -4.66, -4.31, -3.17, -2.9, -2.08, -2.17, -2.82, -2.8, -2.6, -1.7, -0.88, 0.0, 4.29, 3.91, 4.43, 4.11, 6.79, 8.49, 7.6, 8.05, 7.94, 7.6, 7.6, 6.01, 2.83, 6.32, 6.64, 0.0, -2.95, -1.56, -0.89, -2.72, -7.59, -7.27, -5.2, -3.82, -5.8, -13.41, -12.72, -12.72, -12.79, 0.0, 0.0, 0.0, 0.0, 4.71, 7.15, 7.6, 6.94, 6.71, -8.49, -8.05, -8.05, -4.71, -4.71, -4.71, -4.71, -4.87, -6.2, -5.63, -5.81, -5.81, -5.48, -5.48, -5.64, -6.1, -6.1, -6.29, -6.02, -6.02, -6.02, -5.62, -6.74, -6.34, -6.52, -5.98, -5.98, -5.34, -5.34, -5.34, -5.18, -5.91, -5.91, -5.91, -5.34, -5.49, -5.21, -5.09, -4.1, -4.1, -4.31, -6.14, -6.52, -6.52, -6.52, -5.99, -5.11, -4.32, -4.32, -4.17, -3.91, -3.17, -3.11, -2.21, -2.47, -2.98, -2.82, -1.98, -1.14, 0.0, 0.0, 4.47, 4.77, 6.79, 7.21, 7.6, 7.63, 7.01, 7.5, 7.5, 7.01, 8.49, 8.0, 6.79, 3.11, -1.93, -4.25, -3.95, -0.85, 0.82, 0.0, -3.04, -5.8, -5.63, -5.02, -7.36, -9.8, -9.8, -7.69, -3.47, -2.81, -2.37, 0.0, 7.15, 5.21, 6.32, 7.21, 7.15, -8.05, -8.05, -8.05, -4.71, -4.71, -4.71, -4.71, -6.2, -6.2, -5.63, -5.81, -5.99, -5.48, -5.64, -5.64, -6.29, -6.1, -6.1, -5.85, -5.85, -5.85, -5.46, -5.62, -6.74, -6.34, -6.34, -5.98, -5.81, -5.34, -5.34, -5.18, -5.91, -6.09, -5.34, -5.34, -5.34, -5.34, -5.21, -4.19, -4.1, -4.31, -5.81, -6.52, -6.93, -5.78, -5.11, -4.51, -4.06, -3.68, -3.73, -3.78, -3.78, -3.87, -3.39, -3.69, -3.21, -2.69, -2.21, -2.26, -1.23, 0.0, 1.3, 3.16, 4.47, 7.6, 7.21, 7.21, 7.63, 7.63, 6.94, 7.37, 8.05, 8.49, 6.7, 3.11, 0.0, -2.51, -3.36, -0.8, 1.56, 3.48, 2.15, -1.34, -6.4, -7.93, -7.11, -7.19, -4.81, -5.15, -2.43, -2.54, -2.1, 0.0, 0.0, 0.0, 4.2, 5.69, 7.15, 5.37, -8.33, -8.33, -6.0, -6.0, -6.0, -6.0, -6.2, -6.2, -5.81, -5.81, -5.99, -5.48, -5.64, -5.64, -5.19, -6.1, -6.1, -6.29, -5.85, -5.85, -5.85, -5.62, -6.56, -6.34, -6.34, -5.98, -5.81, -5.34, -5.34, -5.18, -5.18, -5.34, -5.34, -5.34, -5.18, -5.18, -4.91, -4.29, -4.19, -4.19, -4.8, -6.34, -6.74, -5.78, -4.6, -3.02, -2.53, -2.28, -2.93, -2.97, -3.78, -4.55, -4.32, -4.05, -3.53, -3.21, -2.44, -1.84, -1.01, 0.0, 0.0, 2.0, 3.48, 5.36, 8.05, 7.01, 7.37, 8.49, 7.6, 8.49, 8.49, 8.49, 8.0, 5.69, 1.76, 0.0, -0.83, -1.61, 0.0, 1.63, 0.87, -0.94, -5.56, -8.23, -8.22, -6.5, -4.4, -4.4, -3.07, -1.54, -1.18, 0.0, 0.0, 0.0, 0.0, 3.8, 5.37, 7.6, -6.01, -6.01, -6.43, -6.43, -6.0, -6.0, -6.2, -6.2, -5.81, -5.81, -5.99, -5.48, -5.64, -5.64, -5.64, -6.29, -6.1, -6.1, -5.85, -5.85, -5.85, -5.62, -6.56, -6.16, -6.34, -6.34, -5.81, -5.64, -5.34, -5.18, -5.18, -5.34, -5.34, -5.34, -5.18, -4.91, -4.91, -4.91, -3.95, -4.07, -4.41, -5.98, -6.74, -6.19, -4.0, -2.81, -1.56, -2.1, -2.82, -2.87, -3.66, -4.55, -5.1, -5.3, -4.31, -3.78, -3.06, -2.31, -1.65, -0.89, 0.0, 0.96, 2.2, 3.48, 7.6, 6.94, 7.37, 8.94, 7.6, 8.05, 8.49, 8.05, 7.63, 6.7, 3.82, 1.25, 0.0, -2.45, -3.23, -2.33, -2.51, -3.68, -4.23, -6.94, -9.09, -7.9, -4.88, -4.4, -3.45, -1.96, -1.14, 0.0, 0.0, 0.0, -3.2, 0.0, -0.0, 0.0, 0.0, 0.0, -6.43, -6.43, -6.0, -6.0, -6.2, -6.2, -5.81, -5.81, -5.99, -5.99, -5.64, -5.64, -5.64, -5.19, -6.29, -6.1, -6.1, -5.85, -5.85, -5.62, -6.56, -6.56, -6.16, -6.34, -5.81, -5.64, -5.18, -5.18, -5.18, -5.18, -5.34, -5.18, -5.18, -5.18, -5.18, -4.91, -4.04, -4.07, -4.29, -5.81, -6.56, -6.66, -5.48, -4.24, -1.5, -1.33, -3.11, -3.96, -5.11, -5.2, -5.6, -4.87, -4.8, -4.07, -3.7, -2.9, -2.18, -1.65, 0.0, 0.0, 0.81, 1.83, 3.4, 6.71, 6.94, 8.49, 8.49, 7.6, 8.05, 7.63, 7.21, 7.6, 2.28, 0.86, 0.0, -0.84, -3.32, -4.98, -5.41, -5.14, -3.49, -3.82, -7.15, -8.82, -6.64, -4.2, -3.7, -2.28, -2.6, -1.28, -1.05, -1.01, -1.32, -6.64, 0.0, 0.0, 0.0, 0.0, -6.43, -6.43, -5.8, -6.0, -6.2, -6.2, -6.4, -5.81, -5.99, -5.99, -5.64, -5.64, -5.64, -5.19, -6.29, -6.1, -6.1, -5.67, -5.85, -6.8, -6.56, -6.56, -6.16, -6.16, -6.16, -5.64, -5.48, -5.18, -5.02, -5.02, -5.18, -5.18, -5.18, -5.18, -5.02, -5.18, -4.76, -4.04, -4.29, -5.34, -6.56, -7.49, -7.16, -6.4, -4.36, -3.41, -4.79, -6.12, -7.25, -7.13, -6.15, -5.4, -5.14, -4.25, -3.7, -2.9, -2.82, -1.55, -0.78, 0.0, 0.0, 0.81, 2.4, 6.8, 7.6, 7.63, 7.37, 7.6, 7.81, 6.7, 6.7, 5.69, 0.0, 0.0, 2.4, 2.64, 0.0, -3.23, -5.67, -5.11, -3.66, -2.88, -3.82, -6.95, -8.18, -5.7, -3.98, -3.19, -2.82, -2.52, -2.23, -1.0, -1.07, -4.2, -8.0, -5.69, -4.43, 0.0, -6.43, -6.43, -5.8, -6.0, -6.0, -6.2, -6.2, -5.81, -5.81, -5.99, -5.99, -5.48, -5.64, -5.64, -6.1, -6.1, -6.1, -5.67, -5.67, -6.8, -6.37, -6.37, -5.99, -6.16, -6.16, -5.81, -5.48, -5.02, -5.02, -5.02, -5.02, -5.18, -5.18, -5.18, -5.02, -5.02, -5.02, -4.61, -4.04, -5.18, -5.81, -7.28, -7.93, -7.68, -7.78, -6.79, -7.38, -8.16, -8.72, -8.14, -7.44, -5.99, -4.44, -4.07, -3.7, -2.9, -2.82, -2.26, -1.45, -0.72, 0.0, 0.0, 2.26, 5.06, 7.6, 7.6, 7.6, 8.49, 7.21, 5.69, 4.46, 3.6, 0.0, 0.0, 1.28, 3.53, 2.65, 0.0, -3.19, -4.71, -4.5, -3.61, -2.95, -5.75, -8.22, -3.68, -2.28, -3.19, -2.82, -3.68, -3.39, -2.04, -1.84, -2.7, -4.2, -5.69, -4.74, -4.74, -6.21, -6.21, -6.43, -5.8, -6.0, -6.0, -6.2, -5.81, -5.81, -5.81, -5.99, -5.48, -5.48, -5.48, -6.1, -6.1, -6.1, -5.67, -5.67, -6.6, -6.37, -6.37, -6.37, -5.99, -5.99, -5.64, -5.48, -5.31, -5.02, -4.87, -4.87, -4.87, -5.02, -5.02, -5.02, -4.87, -4.87, -4.71, -4.61, -4.76, -5.31, -6.4, -7.95, -7.82, -7.73, -7.6, -7.16, -7.45, -7.5, -7.44, -7.69, -6.21, -4.71, -4.5, -3.7, -3.51, -2.31, -2.4, -1.55, -0.78, -0.76, 0.0, 0.81, 3.4, 6.8, 7.6, 8.05, 8.05, 5.95, 5.69, 4.71, 2.69, 0.0, -1.4, -1.54, 0.0, 0.81, 1.78, 1.04, -2.62, -6.2, -4.58, -3.32, -1.77, -2.06, -1.98, -1.58, -2.71, -2.42, -3.21, -3.21, -2.59, -2.83, -3.11, -4.37, -6.01, -6.01, -6.01, -6.21, -6.21, -6.43, -5.8, -6.0, -6.0, -6.2, -6.2, -5.63, -5.81, -5.81, -5.99, -5.48, -5.48, -6.1, -6.1, -6.1, -6.1, -5.67, -6.6, -6.8, -6.37, -6.37, -5.99, -5.99, -5.99, -5.48, -5.31, -5.15, -4.87, -4.71, -4.71, -4.71, -4.87, -5.02, -4.71, -4.71, -4.71, -4.71, -4.71, -5.15, -5.81, -7.2, -7.1, -6.62, -6.36, -6.09, -5.02, -4.81, -5.6, -5.86, -5.75, -4.83, -4.5, -3.7, -3.7, -2.99, -2.4, -2.4, -1.63, -0.72, 0.0, 0.0, 0.0, 6.8, 7.6, 8.05, 7.63, 5.95, 5.37, 5.69, 3.8, 0.0, -1.54, -2.28, -1.68, 0.0, 1.58, 3.32, 4.15, 2.8, 3.07, 1.38, 0.0, 0.0, -1.2, -2.42, -2.33, -3.08, -3.21, -2.94, -2.71, -3.51, -2.7, -3.14, -4.0, -4.0, -4.0, -6.21, -6.21, -6.43, -6.43, -6.0, -6.0, -6.2, -6.2, -5.81, -5.81, -5.81, -5.99, -5.48, -6.6, -6.6, -6.1, -6.1, -6.1, -5.67, -6.6, -6.8, -6.37, -6.37, -6.37, -5.99, -5.99, -5.81, -5.31, -5.15, -4.98, -4.71, -4.71, -4.71, -4.71, -4.71, -4.71, -4.81, -4.98, -4.71, -4.71, -4.71, -5.28, -6.53, -6.84, -6.71, -6.53, -6.0, -4.71, -4.51, -4.64, -5.0, -4.6, -4.0, -4.0, -2.9, -3.15, -2.99, -2.54, -2.4, -1.73, -0.83, -0.76, 0.0, 0.88, 5.69, 7.63, 8.05, 6.94, 6.8, 6.32, 6.32, 6.01, 0.0, 0.0, 0.0, 0.0, 0.0, 0.77, 2.41, 5.06, 7.61, 8.8, 6.5, 3.38, 0.0, -1.04, -3.06, -3.21, -3.98, -3.98, -4.08, -3.21, -3.36, -2.83, -2.7, -3.45, -3.45, -3.45, -6.21, -6.21, -6.43, -6.43, -5.8, -6.0, -6.0, -6.2, -6.4, -5.81, -5.81, -5.81, -5.48, -6.6, -6.6, -6.1, -6.1, -6.1, -5.67, -6.6, -6.6, -6.8, -6.37, -6.37, -5.99, -5.99, -5.81, -5.31, -5.15, -5.15, -5.67, -5.48, -5.48, -5.48, -5.48, -5.48, -4.81, -4.81, -4.98, -4.55, -4.55, -5.11, -6.53, -6.84, -6.71, -6.53, -6.1, -5.2, -4.81, -4.33, -4.62, -3.65, -2.57, -2.44, -2.31, -1.58, -1.58, -1.75, -0.84, -0.84, 0.0, 0.0, 0.0, 1.47, 3.63, 7.07, 7.63, 6.79, 7.21, 8.05, 8.05, 8.49, 4.0, 2.97, 2.28, 1.84, 1.28, 0.93, 1.71, 4.93, 7.59, 8.2, 6.5, 3.98, 2.0, 0.0, -1.04, -3.06, -4.54, -4.58, -4.05, -3.32, -3.49, -3.21, -3.21, -3.32, -3.32, -3.32, -6.21, -6.21, -6.43, -6.43, -6.65, -6.0, -6.0, -6.2, -6.2, -5.81, -5.81, -5.81, -5.48, -6.6, -6.6, -6.1, -6.1, -6.1, -6.1, -6.6, -6.6, -6.8, -6.37, -6.37, -6.37, -5.99, -5.81, -5.63, -5.15, -5.86, -5.67, -5.48, -5.48, -5.29, -5.29, -5.29, -5.29, -4.65, -4.81, -4.81, -4.55, -4.81, -6.15, -6.08, -6.2, -6.87, -6.44, -5.89, -5.6, -4.87, -4.13, -3.36, -2.57, -1.67, -0.8, -0.8, -0.89, 0.0, 0.0, 0.0, 0.0, 0.78, 1.47, 2.11, 3.79, 6.01, 6.8, 8.05, 8.49, 7.2, 8.49, 7.6, 6.01, 2.83, 2.28, 1.93, 1.45, 1.11, 2.82, 4.81, 5.25, 5.21, 5.12, 4.66, 3.78, 1.83, 0.0, -1.77, -2.94, -4.99, -4.34, -4.34, -4.2, -3.88, -4.07, -4.07, -4.07, -4.07, -6.21, -6.21, -6.43, -6.43, -6.43, -6.65, -6.2, -6.2, -6.2, -6.2, -5.81, -5.81, -5.81, -6.6, -6.6, -6.6, -6.1, -6.1, -6.1, -6.4, -6.4, -6.6, -6.8, -6.37, -6.37, -5.99, -5.81, -5.63, -5.15, -5.86, -5.67, -5.67, -5.48, -5.29, -5.29, -5.1, -5.1, -5.29, -4.65, -4.65, -4.65, -4.65, -4.93, -6.08, -6.2, -7.24, -6.77, -6.21, -5.4, -5.3, -5.14, -4.25, -3.49, -1.75, -0.8, -0.76, 0.0, 0.0, 0.0, 0.0, 0.94, 0.95, 1.47, 2.73, 3.48, 5.69, 6.8, 5.37, 5.69, 0.0, 6.32, 7.6, 6.32, 4.2, 2.97, 1.93, 1.62, 2.49, 4.36, 5.0, 3.68, 3.25, 4.67, 5.92, 4.77, 1.78, 0.0, -0.71, -3.39, -4.5, -5.64, -5.21, -5.21, -4.83, -4.83, -3.88, -3.88, -3.88, -6.94, -6.94, -7.19, -6.43, -6.43, -6.65, -6.2, -6.2, -6.2, -6.4, -5.81, -5.81, -7.16, -6.6, -6.6, -6.6, -6.1, -6.1, -6.1, -7.06, -6.6, -6.6, -6.8, -6.37, -6.37, -6.18, -5.81, -5.63, -5.46, -5.67, -5.67, -5.67, -5.48, -5.29, -5.29, -5.1, -5.1, -5.1, -4.48, -4.65, -4.65, -4.65, -4.93, -5.72, -6.45, -6.94, -6.79, -6.21, -5.2, -5.41, -4.92, -4.07, -3.36, -2.47, -0.77, -0.73, 0.0, 0.0, 0.0, 0.94, 0.94, 0.95, 1.7, 2.53, 3.48, 4.74, 6.0, 5.06, 0.0, 0.0, 0.0, 0.0, 8.4, 6.64, 5.21, 4.2, 3.49, 3.11, 3.61, 3.08, 1.76, 2.61, 4.1, 5.8, 4.66, 1.87, 0.0, 0.0, -0.84, -2.99, -4.71, -5.1, -4.42, -3.55, -3.2, -3.09, -3.09, -3.09, -6.94, -6.94, -7.19, -6.43, -6.43, -6.65, -6.2, -6.2, -6.2, -6.4, -5.81, -5.81, -7.16, -6.6, -6.6, -6.6, -6.1, -6.1, -6.1, -7.06, -6.6, -6.6, -6.8, -6.8, -6.18, -6.18, -5.81, -5.63, -6.2, -6.2, -5.67, -5.67, -5.48, -5.29, -5.29, -5.1, -5.1, -5.1, -4.75, -4.75, -4.48, -4.48, -4.48, -5.72, -6.08, -6.94, -7.19, -6.56, -6.09, -5.41, -5.52, -4.71, -4.4, -2.35, -1.4, -0.67, -0.73, 0.0, 0.0, 0.0, 0.0, 0.89, 0.88, 1.99, 2.2, 4.43, 5.6, 6.0, 3.2, 0.0, -3.8, -4.0, 0.0, 8.8, 6.64, 5.21, 4.2, 3.49, 2.58, 2.13, 0.93, 0.93, 2.71, 2.54, 2.94, 0.0, 9.33, 5.64, 4.0, 0.0, -3.47, -4.74, -2.4, 0.0, 0.0, -1.23, -1.23, -1.23, -6.94, -6.94, -6.94, -7.19, -6.43, -6.43, -6.65, -6.2, -6.2, -6.4, -5.81, -7.16, -7.16, -7.16, -6.6, -6.6, -6.6, -6.1, -6.1, -7.06, -7.06, -6.6, -6.6, -6.6, -6.18, -6.18, -6.18, -5.63, -6.2, -6.2, -6.0, -6.0, -5.48, -5.48, -5.29, -5.1, -5.1, -5.2, -4.58, -4.58, -4.75, -4.48, -4.48, -5.2, -6.08, -6.72, -7.19, -6.56, -6.33, -6.2, -5.52, -5.64, -5.06, -3.06, -2.06, -1.32, -1.32, -0.69, -0.76, 0.0, 0.0, 0.0, 0.0, 1.05, 1.3, 1.7, 4.74, 4.43, 4.74, 0.0, 0.0, -3.8, -6.64, 0.0, 8.8, 6.64, 2.97, 4.0, 1.54, 0.0, 0.0, 0.0, 0.0, 0.0, 0.0, 0.0, 10.18, 6.7, 4.34, 2.2, -1.84, -5.37, 6.26, 4.92, 4.11, 0.0, 0.0, 0.0, -6.94, -6.94, -5.6, -5.8, -6.43, -6.43, -6.65, -6.2, -6.2, -6.4, -5.81, -7.16, -7.16, -7.16, -6.6, -6.6, -6.6, -6.1, -6.1, -7.06, -7.06, -6.6, -6.6, -6.6, -6.6, -6.18, -5.99, -6.4, -6.2, -6.0, -6.0, -5.8, -5.8, -5.8, -5.6, -5.4, -5.4, -5.2, -4.58, -4.58, -4.58, -4.58, -4.32, -4.58, -5.51, -5.86, -7.1, -6.7, -6.7, -6.57, -6.15, -5.9, -5.06, -4.2, -3.06, -2.69, -1.95, -1.32, -1.36, -0.71, -0.69, 0.0, 0.0, 0.0, 0.0, 0.0, 0.0, 0.0, 4.74, 3.2, 0.0, -3.6, -6.01, 0.0, 6.95, 4.2, 2.97, 2.17, 0.0, -1.16, -1.09, 0.0, 0.0, -2.09, -3.0, -2.79, 12.07, 8.63, 5.7, 4.0, 1.55, 6.4, 6.71, 5.36, 7.6, 8.49, 8.49, 8.49, -6.94, -6.94, -5.6, -5.6, -6.43, -6.43, -6.65, -6.0, -6.2, -6.2, -6.4, -6.95, -7.16, -7.16, -7.16, -6.6, -6.6, -6.6, -6.1, -7.28, -7.06, -7.06, -6.6, -6.6, -6.6, -5.99, -5.99, -6.78, -6.2, -6.0, -6.0, -5.8, -5.8, -5.6, -5.6, -5.4, -5.4, -5.2, -4.58, -4.4, -4.58, -4.58, -4.32, -4.58, -4.68, -5.63, -6.24, -6.84, -6.84, -6.57, -6.15, -6.31, -5.46, -4.78, -4.2, -3.32, -2.9, -2.06, -2.12, -1.49, -1.45, -0.69, -0.78, -1.03, 0.0, 0.0, 0.0, 0.0, 0.0, 0.0, 0.0, 0.0, 0.0, 0.0, 0.0, 0.0, 0.0, -2.17, -2.58, -3.3, -2.28, -1.09, -0.83, -1.02, -3.0, -2.72, 11.18, 7.2, 4.66, 3.82, 4.92, 7.15, 7.6, 7.6, 8.94, 8.0, 8.0, 8.0, -7.82, -7.82, -5.6, -5.6, -6.94, -6.43, -6.65, -6.2, -6.2, -6.2, -6.2, -6.95, -7.16, -7.16, -7.16, -6.6, -6.6, -6.6, -6.1, -7.28, -7.28, -7.06, -6.6, -6.6, -6.4, -6.4, -5.99, -6.57, -6.57, -6.0, -6.0, -5.8, -5.8, -5.6, -5.6, -5.4, -5.4, -5.2, -4.58, -4.4, -4.4, -4.58, -4.58, -4.4, -4.4, -4.8, -5.76, -6.31, -6.31, -6.7, -6.59, -6.31, -5.46, -4.78, -4.78, -3.49, -3.32, -3.06, -2.9, -2.0, -2.06, -1.45, -1.52, -0.89, -1.1, -1.32, 0.0, 0.0, 0.0, 0.0, 0.0, 0.0, 0.0, 0.0, 0.0, -6.01, -3.6, -5.36, -4.66, -4.66, -4.44, -3.3, -0.82, 0.0, -2.22, -2.57, 6.79, 5.24, 4.84, 3.84, 5.21, 7.63, 7.63, 8.48, 8.4, 6.01, 6.01, 6.01, -7.82, -7.82, -5.6, -5.6, -6.94, -6.21, -6.43, -6.0, -6.0, -6.0, -7.34, -7.58, -6.95, -7.16, -7.16, -7.16, -6.6, -6.6, -6.6, -7.28, -7.28, -7.28, -7.28, -6.6, -6.4, -6.4, -5.99, -6.57, -6.57, -6.36, -5.8, -5.8, -5.6, -5.6, -5.6, -5.4, -5.4, -5.2, -4.4, -4.4, -4.4, -4.4, -4.4, -4.4, -4.23, -4.5, -5.76, -5.76, -6.05, -6.42, -6.31, -6.31, -6.17, -5.21, -5.21, -3.81, -3.49, -4.0, -3.8, -2.99, -2.31, -2.06, -1.45, -1.63, -2.12, -2.12, -1.32, 0.0, 0.0, 0.0, 0.0, 0.0, 0.0, 0.0, 0.0, -4.0, -6.32, -6.32, -5.72, -5.2, -5.2, -4.0, -2.7, -1.77, -2.21, -4.81, 3.91, 4.01, 4.81, 4.19, 5.06, 6.01, 6.64, 7.81, 6.64, 6.64, 6.64, 6.64, -7.82, -7.82, -6.44, -6.94, -7.19, -6.43, -6.43, -6.43, -6.0, -6.0, -7.34, -7.58, -6.95, -7.16, -7.16, -7.16, -6.6, -6.6, -6.6, -7.06, -7.28, -7.28, -7.28, -6.6, -6.4, -6.4, -6.4, -6.57, -6.36, -6.36, -6.15, -5.6, -5.6, -5.6, -5.4, -5.4, -5.4, -4.58, -4.58, -4.4, -4.68, -4.4, -4.4, -4.4, -4.23, -4.5, -5.14, -5.9, -5.9, -6.42, -6.31, -6.17, -6.17, -5.21, -5.21, -4.4, -3.81, -3.63, -4.0, -3.8, -2.99, -2.82, -2.26, -2.51, -2.82, -2.26, -2.66, -1.4, 0.0, 0.0, 0.0, 0.0, 0.0, 0.0, -6.01, -6.01, -7.07, -6.32, -5.72, -5.72, -5.53, -5.2, -4.56, -3.39, -3.22, -10.75, 1.93, 4.01, 4.43, 6.32, 6.32, 5.63, 5.63, 6.64, 6.64, 5.21, 5.21, 5.21, -7.82, -7.82, -7.82, -6.94, -7.19, -6.43, -6.43, -6.65, -6.0, -6.0, -7.34, -7.34, -7.58, -7.16, -7.16, -7.16, -6.6, -6.6, -7.59, -7.82, -7.28, -7.28, -7.28, -6.6, -6.4, -6.4, -6.2, -6.57, -6.36, -6.15, -6.15, -5.93, -5.93, -5.72, -5.72, -5.72, -5.51, -4.87, -4.87, -4.68, -4.68, -4.68, -4.4, -4.23, -4.23, -4.5, -4.8, -5.9, -5.9, -6.83, -6.31, -5.9, -6.17, -5.21, -5.21, -5.21, -3.81, -3.81, -4.34, -4.12, -3.91, -3.4, -2.66, -2.9, -3.55, -3.2, -2.26, -2.66, -1.73, -2.26, 0.0, 0.0, 0.0, 0.0, -5.69, -7.07, -7.07, -6.79, -6.01, -5.44, -5.72, -6.11, -5.21, -4.92, -4.97, -8.18, -3.96, 3.6, 4.01, 6.01, 6.64, 5.06, 4.2, 5.21, 2.97, 2.97, 2.97, 2.97, -7.82, -7.82, -7.82, -6.94, -7.19, -7.19, -6.43, -6.65, -6.65, -6.0, -7.34, -7.34, -7.58, -6.95, -7.16, -6.95, -6.95, -6.6, -7.59, -7.59, -7.28, -7.28, -7.28, -7.28, -6.4, -6.2, -6.2, -6.98, -6.36, -6.15, -6.15, -5.93, -5.93, -5.72, -5.72, -5.72, -5.72, -4.87, -4.87, -4.68, -4.68, -4.68, -4.5, -4.23, -4.23, -4.5, -4.6, -5.9, -5.9, -6.83, -6.31, -6.48, -5.9, -5.9, -5.21, -4.98, -4.98, -4.56, -4.56, -4.34, -4.71, -4.46, -3.69, -2.9, -3.2, -3.55, -3.2, -3.91, -2.82, -2.66, 0.0, 0.0, 0.0, 0.0, -3.4, -5.69, -7.07, -7.07, -7.15, -6.32, -5.72, -6.11, -5.76, -5.76, -5.81, -7.38, -13.86, -0.0, 3.8, 4.37, 4.83, 3.65, 1.93, 2.39, 2.97, 2.97, 2.97, 2.97, -7.82, -7.82, -7.82, -6.94, -6.94, -7.19, -6.43, -6.43, -6.65, -6.0, -7.34, -7.34, -7.58, -7.58, -6.95, -6.95, -6.95, -6.4, -7.59, -7.59, -7.59, -7.28, -7.28, -7.06, -6.4, -6.2, -6.2, -6.76, -6.76, -6.15, -6.15, -5.93, -5.72, -5.72, -5.72, -5.72, -5.72, -4.87, -4.87, -4.87, -4.68, -4.68, -4.68, -4.5, -4.23, -4.5, -4.6, -4.92, -5.9, -6.31, -6.53, -6.48, -5.9, -5.9, -5.72, -5.46, -4.98, -4.34, -4.56, -4.34, -5.36, -5.1, -4.46, -3.69, -3.69, -4.42, -4.22, -4.22, -4.14, -3.91, -1.32, 0.0, 0.0, 0.0, 0.0, -3.4, -7.2, -8.24, -7.6, -6.98, -6.32, -6.64, -5.76, -6.15, -6.15, -6.8, -10.99, -11.28, -0.0, 1.93, 1.84, 1.84, 1.93, 1.84, 2.28, -0.0, -0.0, -0.0, -8.85, -8.85, -8.1, -8.1, -7.19, -7.19, -6.43, -6.43, -6.43, -7.79, -7.11, -7.34, -7.58, -7.58, -6.95, -6.95, -6.95, -7.93, -7.36, -7.59, -7.59, -7.06, -7.06, -7.06, -6.85, -6.2, -6.2, -6.76, -6.76, -6.15, -6.15, -5.93, -5.72, -5.72, -5.72, -5.51, -5.51, -5.51, -5.51, -4.68, -4.68, -4.68, -4.68, -4.5, -4.5, -4.5, -4.8, -4.92, -5.9, -6.83, -6.48, -6.48, -5.9, -6.4, -5.46, -5.46, -4.98, -4.74, -4.34, -4.96, -5.36, -5.1, -5.1, -4.46, -4.22, -4.03, -4.42, -5.15, -5.03, -4.75, -3.45, -2.16, 0.0, 0.0, 0.0, -3.4, -5.69, -8.24, -7.89, -7.07, -7.15, -6.73, -6.95, -6.7, -6.08, -6.4, -7.69, -10.8, -10.84, -2.39, -0.0, -0.0, -0.0, -0.0, -0.0, -0.0, -0.0, -0.0, -8.85, -8.85, -8.1, -8.1, -7.19, -7.19, -6.43, -6.43, -6.43, -7.79, -7.11, -7.34, -7.58, -7.58, -6.95, -6.95, -6.95, -7.93, -7.36, -7.59, -7.59, -7.06, -7.06, -7.06, -6.85, -6.2, -6.2, -6.76, -6.76, -6.15, -6.15, -5.93, -5.72, -5.72, -5.72, -5.51, -5.51, -5.51, -5.51, -4.68, -4.68, -4.68, -4.68, -4.5, -4.5, -4.5, -4.8, -4.92, -5.9, -6.83, -6.48, -6.48, -5.9, -6.4, -5.46, -5.46, -4.98, -4.74, -4.34, -4.96, -5.36, -5.1, -5.1, -4.46, -4.22, -4.03, -4.42, -5.15, -5.03, -4.75, -3.45, -2.16, 0.0, 0.0, 0.0, -3.4, -8.06, -8.24, -7.89, -7.07, -7.15, -7.06, -7.35, -7.18, -6.57, -6.96, -6.9, -8.15, -11.03, -10.84, -5.7, -2.28, -0.0, -0.0, -0.0, -0.0, -0.0, -0.0]}]